CLX8 ELLX-KMIA

Flight info

Callsign CLX8
Flight time 9h 23m
Altitude 34000
Route LNO1R LNO N852 TERLA L608 DENUT L610 KOPUL Q60 OKSAW DCT FELCA DCT FADZU DCT OFSOX DCT SLANY DCT MALOT/M085F360 NATE 53N050W/M085F380 NATE RIKAL DCT TOPPS/N0474F380 DCT BEEKN Q97 KALDA Q101 PRANK/N0478F400 Q101 SKARP Y313 HOAGG BNFSH3
Aircraft B744/H-SDE2E3FGHIJ4J5M1RWXYZ/LB2D1

Departure

Time 2026-05-05 13:40
Airport Luxembourg-Findel International Airport (ELLX)

Arrival

Time 2026-05-05 23:03
Airport Miami International Airport (KMIA)
Time Latitude Longitude Altitude Speed Heading
2026-05-05 12:26 49.63663 6.22580 1247 ft 0 kts 240°
2026-05-05 13:25 49.63669 6.22597 1247 ft 2 kts 240°
2026-05-05 13:25 49.63677 6.22619 1247 ft 2 kts 240°
2026-05-05 13:25 49.63686 6.22641 1247 ft 2 kts 240°
2026-05-05 13:26 49.63694 6.22662 1247 ft 2 kts 238°
2026-05-05 13:26 49.63700 6.22677 1247 ft 1 kts 227°
2026-05-05 13:26 49.63709 6.22688 1247 ft 2 kts 211°
2026-05-05 13:26 49.63721 6.22695 1247 ft 2 kts 179°
2026-05-05 13:27 49.63734 6.22690 1247 ft 2 kts 150°
2026-05-05 13:27 49.63745 6.22676 1247 ft 2 kts 130°
2026-05-05 13:27 49.63756 6.22657 1247 ft 2 kts 136°
2026-05-05 13:27 49.63768 6.22642 1247 ft 2 kts 144°
2026-05-05 13:28 49.63765 6.22644 1247 ft 2 kts 150°
2026-05-05 13:28 49.63758 6.22651 1247 ft 0 kts 152°
2026-05-05 13:34 49.63757 6.22651 1247 ft 2 kts 152°
2026-05-05 13:34 49.63721 6.22679 1247 ft 7 kts 153°
2026-05-05 13:34 49.63680 6.22713 1247 ft 7 kts 150°
2026-05-05 13:35 49.63640 6.22748 1247 ft 7 kts 150°
2026-05-05 13:35 49.63588 6.22792 1247 ft 9 kts 150°
2026-05-05 13:35 49.63536 6.22837 1247 ft 8 kts 150°
2026-05-05 13:35 49.63506 6.22907 1247 ft 9 kts 87°
2026-05-05 13:36 49.63532 6.23005 1247 ft 10 kts 60°
2026-05-05 13:36 49.63566 6.23097 1247 ft 10 kts 60°
2026-05-05 13:36 49.63599 6.23185 1247 ft 9 kts 60°
2026-05-05 13:36 49.63631 6.23270 1247 ft 9 kts 60°
2026-05-05 13:37 49.63661 6.23352 1247 ft 9 kts 62°
2026-05-05 13:37 49.63655 6.23434 1247 ft 8 kts 134°
2026-05-05 13:37 49.63608 6.23481 1247 ft 8 kts 150°
2026-05-05 13:37 49.63562 6.23521 1247 ft 7 kts 151°
2026-05-05 13:38 49.63535 6.23534 1247 ft 4 kts 197°
2026-05-05 13:38 49.63520 6.23508 1247 ft 0 kts 240°
2026-05-05 13:39 49.63518 6.23503 1247 ft 5 kts 240°
2026-05-05 13:39 49.63439 6.23291 1247 ft 49 kts 240°
2026-05-05 13:39 49.63167 6.22561 1247 ft 107 kts 239°
2026-05-05 13:39 49.62706 6.21319 1248 ft 157 kts 239°
2026-05-05 13:40 49.62124 6.19750 1478 ft 172 kts 239°
2026-05-05 13:40 49.61530 6.18131 1991 ft 175 kts 239°
2026-05-05 13:40 49.60911 6.16499 2550 ft 178 kts 238°
2026-05-05 13:40 49.60279 6.14836 3051 ft 184 kts 239°
2026-05-05 13:41 49.59612 6.13059 3309 ft 203 kts 239°
2026-05-05 13:41 49.58877 6.11074 3467 ft 225 kts 239°
2026-05-05 13:41 49.58066 6.08879 3646 ft 247 kts 239°
2026-05-05 13:41 49.57177 6.06473 4020 ft 260 kts 239°
2026-05-05 13:42 49.56476 6.03876 4571 ft 268 kts 259°
2026-05-05 13:42 49.56595 6.01026 5243 ft 271 kts 285°
2026-05-05 13:42 49.57540 5.98522 5826 ft 276 kts 311°
2026-05-05 13:42 49.59134 5.96874 6356 ft 281 kts 337°
2026-05-05 13:43 49.61048 5.96284 6934 ft 283 kts 353°
2026-05-05 13:43 49.63032 5.96263 7535 ft 286 kts
2026-05-05 13:43 49.65018 5.96519 8219 ft 289 kts
2026-05-05 13:43 49.67027 5.96860 8872 ft 293 kts
2026-05-05 13:44 49.69069 5.97157 9565 ft 296 kts
2026-05-05 13:44 49.71133 5.97392 10225 ft 302 kts
2026-05-05 13:44 49.73283 5.97580 10575 ft 320 kts
2026-05-05 13:44 49.75590 5.97745 10753 ft 344 kts
2026-05-05 13:45 49.78095 5.97961 10927 ft 369 kts
2026-05-05 13:45 49.80734 5.98175 11099 ft 393 kts
2026-05-05 13:45 49.83517 5.98387 11602 ft 406 kts
2026-05-05 13:45 49.86355 5.98598 12335 ft 412 kts
2026-05-05 13:46 49.89238 5.98814 13061 ft 419 kts
2026-05-05 13:46 49.92165 5.99041 13781 ft 425 kts
2026-05-05 13:46 49.95130 5.99281 14505 ft 430 kts
2026-05-05 13:46 49.98134 5.99537 15204 ft 436 kts
2026-05-05 13:47 50.01170 5.99838 15894 ft 441 kts
2026-05-05 13:47 50.04240 6.00121 16563 ft 446 kts
2026-05-05 13:47 50.07343 5.99962 17191 ft 450 kts 351°
2026-05-05 13:47 50.10436 5.98826 17850 ft 454 kts 344°
2026-05-05 13:48 50.13474 5.97378 18458 ft 459 kts 341°
2026-05-05 13:48 50.16485 5.95705 19095 ft 462 kts 339°
2026-05-05 13:48 50.19495 5.93910 19708 ft 466 kts 338°
2026-05-05 13:48 50.22534 5.92097 20288 ft 471 kts 338°
2026-05-05 13:49 50.25608 5.90286 20874 ft 475 kts 339°
2026-05-05 13:49 50.28710 5.88476 21453 ft 478 kts 339°
2026-05-05 13:49 50.31849 5.86683 21974 ft 483 kts 339°
2026-05-05 13:49 50.35009 5.84857 22528 ft 486 kts 339°
2026-05-05 13:50 50.38182 5.83008 23069 ft 490 kts 339°
2026-05-05 13:50 50.41381 5.81137 23593 ft 492 kts 339°
2026-05-05 13:50 50.44548 5.79281 24671 ft 480 kts 339°
2026-05-05 13:50 50.47648 5.77462 26006 ft 461 kts 339°
2026-05-05 13:51 50.50578 5.75739 26958 ft 454 kts 338°
2026-05-05 13:51 50.53585 5.73971 27271 ft 462 kts 338°
2026-05-05 13:51 50.56629 5.72182 27361 ft 473 kts 338°
2026-05-05 13:51 50.59763 5.70426 27440 ft 486 kts 341°
2026-05-05 13:52 50.62982 5.68657 27501 ft 495 kts 333°
2026-05-05 13:52 50.65892 5.65724 27596 ft 501 kts 317°
2026-05-05 13:52 50.68230 5.61678 27813 ft 502 kts 303°
2026-05-05 13:52 50.69959 5.56930 28195 ft 500 kts 294°
2026-05-05 13:53 50.71328 5.51907 28758 ft 496 kts 288°
2026-05-05 13:53 50.72454 5.46811 29417 ft 491 kts 284°
2026-05-05 13:53 50.73435 5.41680 30013 ft 487 kts 283°
2026-05-05 13:53 50.74383 5.36578 30586 ft 484 kts 283°
2026-05-05 13:54 50.75358 5.31499 31090 ft 482 kts 283°
2026-05-05 13:54 50.76352 5.26402 31650 ft 479 kts 283°
2026-05-05 13:54 50.77336 5.21382 32111 ft 478 kts 283°
2026-05-05 13:54 50.78316 5.16382 32534 ft 477 kts 282°
2026-05-05 13:55 50.79292 5.11404 32992 ft 474 kts 282°
2026-05-05 13:55 50.80268 5.06438 33373 ft 473 kts 282°
2026-05-05 13:55 50.81238 5.01495 33716 ft 473 kts 282°
2026-05-05 13:55 50.82220 4.96538 33850 ft 473 kts 282°
2026-05-05 13:56 50.84110 4.86626 33893 ft 471 kts 281°
2026-05-05 13:56 50.85964 4.76725 33898 ft 470 kts 281°
2026-05-05 13:57 50.87823 4.66746 33902 ft 470 kts 281°
2026-05-05 13:57 50.89690 4.56841 33900 ft 472 kts 284°
2026-05-05 13:58 50.92554 4.47421 33907 ft 479 kts 294°
2026-05-05 13:58 50.96046 4.38390 33906 ft 482 kts 296°
2026-05-05 13:59 51.01289 4.24810 33905 ft 481 kts 295°
2026-05-05 14:00 51.05897 4.12662 33905 ft 480 kts 295°
2026-05-05 14:00 51.09993 4.02131 33895 ft 479 kts 296°
2026-05-05 14:01 51.13431 3.93061 33893 ft 479 kts 295°
2026-05-05 14:01 51.16835 3.83954 33895 ft 479 kts 295°
2026-05-05 14:02 51.20230 3.74841 33897 ft 478 kts 295°
2026-05-05 14:02 51.23322 3.65553 33916 ft 472 kts 286°
2026-05-05 14:03 51.25096 3.55563 33919 ft 466 kts 276°
2026-05-05 14:03 51.26316 3.45390 33917 ft 464 kts 276°
2026-05-05 14:04 51.27635 3.35327 33917 ft 465 kts 276°
2026-05-05 14:04 51.28920 3.25213 33914 ft 466 kts 277°
2026-05-05 14:05 51.30278 3.15100 33911 ft 466 kts 277°
2026-05-05 14:05 51.31557 3.04958 33908 ft 467 kts 276°
2026-05-05 14:06 51.32817 2.94783 33907 ft 467 kts 276°
2026-05-05 14:06 51.34071 2.84600 33907 ft 468 kts 277°
2026-05-05 14:07 51.35336 2.74333 33910 ft 469 kts 277°
2026-05-05 14:07 51.36646 2.64127 33913 ft 469 kts 277°
2026-05-05 14:08 51.37892 2.53899 33916 ft 469 kts 277°
2026-05-05 14:08 51.39117 2.43654 33920 ft 469 kts 277°
2026-05-05 14:09 51.40338 2.33407 33924 ft 469 kts 277°
2026-05-05 14:09 51.41565 2.23171 33926 ft 469 kts 277°
2026-05-05 14:10 51.42834 2.12921 33929 ft 469 kts 277°
2026-05-05 14:10 51.44079 2.02599 33932 ft 469 kts 277°
2026-05-05 14:11 51.45294 1.92350 33934 ft 469 kts 277°
2026-05-05 14:11 51.46505 1.82068 33935 ft 470 kts 277°
2026-05-05 14:12 51.47693 1.71780 33936 ft 470 kts 277°
2026-05-05 14:12 51.48867 1.61487 33944 ft 470 kts 277°
2026-05-05 14:13 51.50082 1.51204 33947 ft 470 kts 277°
2026-05-05 14:13 51.51249 1.40811 33950 ft 470 kts 277°
2026-05-05 14:14 51.52385 1.30480 33952 ft 470 kts 277°
2026-05-05 14:14 51.53515 1.20159 33956 ft 470 kts 277°
2026-05-05 14:15 51.54407 1.11557 33958 ft 470 kts 274°
2026-05-05 14:15 51.55181 0.99380 33961 ft 469 kts 272°
2026-05-05 14:16 51.55779 0.88964 33962 ft 469 kts 272°
2026-05-05 14:16 51.56296 0.80228 33964 ft 469 kts 272°
2026-05-05 14:17 51.56913 0.69805 33964 ft 469 kts 272°
2026-05-05 14:17 51.57527 0.59380 33964 ft 469 kts 273°
2026-05-05 14:18 51.58215 0.48964 33964 ft 469 kts 273°
2026-05-05 14:18 51.58864 0.38543 33965 ft 469 kts 274°
2026-05-05 14:19 51.59530 0.28052 33964 ft 469 kts 273°
2026-05-05 14:19 51.60114 0.17616 33964 ft 469 kts 272°
2026-05-05 14:20 51.60679 0.07193 33965 ft 468 kts 272°
2026-05-05 14:20 51.61238 -0.03228 33959 ft 470 kts 273°
2026-05-05 14:21 51.61810 -0.13808 33964 ft 478 kts 274°
2026-05-05 14:21 51.62459 -0.24457 33965 ft 479 kts 275°
2026-05-05 14:22 51.63093 -0.35161 33964 ft 478 kts 274°
2026-05-05 14:22 51.63707 -0.45787 33964 ft 478 kts 274°
2026-05-05 14:23 51.64311 -0.56419 33964 ft 478 kts 274°
2026-05-05 14:23 51.64908 -0.67063 33964 ft 478 kts 275°
2026-05-05 14:24 51.65586 -0.77686 33965 ft 478 kts 275°
2026-05-05 14:24 51.66212 -0.88319 33964 ft 478 kts 274°
2026-05-05 14:25 51.66809 -0.98964 33964 ft 478 kts 274°
2026-05-05 14:25 51.67394 -1.09678 33965 ft 478 kts 274°
2026-05-05 14:26 51.67993 -1.20321 33965 ft 478 kts 275°
2026-05-05 14:26 51.68587 -1.30975 33966 ft 478 kts 274°
2026-05-05 14:27 51.69120 -1.41619 33967 ft 478 kts 274°
2026-05-05 14:27 51.69639 -1.52276 33967 ft 478 kts 274°
2026-05-05 14:28 51.70157 -1.62934 33969 ft 478 kts 274°
2026-05-05 14:28 51.70726 -1.73655 33976 ft 478 kts 276°
2026-05-05 14:29 51.71512 -1.84284 33979 ft 478 kts 276°
2026-05-05 14:29 51.72271 -1.94917 33979 ft 478 kts 276°
2026-05-05 14:30 51.73002 -2.05555 33982 ft 478 kts 276°
2026-05-05 14:30 51.73719 -2.16198 33986 ft 478 kts 275°
2026-05-05 14:31 51.74449 -2.26846 33992 ft 478 kts 276°
2026-05-05 14:31 51.75239 -2.37486 33992 ft 478 kts 276°
2026-05-05 14:32 51.75977 -2.48209 33993 ft 479 kts 276°
2026-05-05 14:32 51.76687 -2.58876 33992 ft 479 kts 275°
2026-05-05 14:33 51.77382 -2.69554 33993 ft 479 kts 275°
2026-05-05 14:33 51.78068 -2.80248 34001 ft 480 kts 275°
2026-05-05 14:34 51.78744 -2.90958 34004 ft 481 kts 275°
2026-05-05 14:34 51.79414 -3.01692 34005 ft 482 kts 276°
2026-05-05 14:35 51.80136 -3.12513 34007 ft 482 kts 276°
2026-05-05 14:35 51.80776 -3.23273 34010 ft 483 kts 275°
2026-05-05 14:36 51.81394 -3.34067 34011 ft 483 kts 275°
2026-05-05 14:36 51.82008 -3.44876 34024 ft 484 kts 275°
2026-05-05 14:37 51.82734 -3.55682 34026 ft 485 kts 280°
2026-05-05 14:37 51.84132 -3.66331 34025 ft 485 kts 283°
2026-05-05 14:38 51.85547 -3.76988 34025 ft 486 kts 282°
2026-05-05 14:38 51.86910 -3.87743 34025 ft 486 kts 282°
2026-05-05 14:39 51.88264 -3.98442 34025 ft 486 kts 282°
2026-05-05 14:39 51.89601 -4.09153 34024 ft 486 kts 282°
2026-05-05 14:40 51.90920 -4.19868 34025 ft 486 kts 282°
2026-05-05 14:40 51.92228 -4.30587 34025 ft 486 kts 282°
2026-05-05 14:41 51.93526 -4.41306 34025 ft 485 kts 282°
2026-05-05 14:41 51.94825 -4.52097 34026 ft 485 kts 282°
2026-05-05 14:42 51.96184 -4.62773 34025 ft 484 kts 282°
2026-05-05 14:42 51.97538 -4.73457 34026 ft 484 kts 282°
2026-05-05 14:43 51.98832 -4.84145 34029 ft 483 kts 281°
2026-05-05 14:43 52.00075 -4.94841 34030 ft 483 kts 281°
2026-05-05 14:44 52.01305 -5.05510 34032 ft 479 kts 281°
2026-05-05 14:44 52.02533 -5.16167 34033 ft 478 kts 281°
2026-05-05 14:45 52.04232 -5.26565 34035 ft 478 kts 288°
2026-05-05 14:45 52.06380 -5.36757 34039 ft 478 kts 290°
2026-05-05 14:46 52.08520 -5.46966 34041 ft 478 kts 288°
2026-05-05 14:46 52.10559 -5.57237 34044 ft 478 kts 288°
2026-05-05 14:47 52.12583 -5.67521 34046 ft 478 kts 288°
2026-05-05 14:47 52.14606 -5.77820 34056 ft 478 kts 288°
2026-05-05 14:48 52.16477 -5.88269 34059 ft 479 kts 284°
2026-05-05 14:48 52.17864 -5.98858 34063 ft 479 kts 282°
2026-05-05 14:49 52.19175 -6.09492 34066 ft 479 kts 282°
2026-05-05 14:49 52.20498 -6.20105 34072 ft 479 kts 282°
2026-05-05 14:50 52.21822 -6.30712 34074 ft 478 kts 282°
2026-05-05 14:50 52.23153 -6.41311 34078 ft 477 kts 282°
2026-05-05 14:51 52.24581 -6.51937 34080 ft 476 kts 282°
2026-05-05 14:51 52.25946 -6.62474 34081 ft 475 kts 282°
2026-05-05 14:52 52.27278 -6.73003 34083 ft 474 kts 282°
2026-05-05 14:52 52.28590 -6.83518 34083 ft 472 kts 281°
2026-05-05 14:53 52.29883 -6.93996 34083 ft 471 kts 281°
2026-05-05 14:53 52.31166 -7.04474 34082 ft 470 kts 281°
2026-05-05 14:54 52.32444 -7.15002 34083 ft 469 kts 281°
2026-05-05 14:54 52.33699 -7.25433 34084 ft 469 kts 281°
2026-05-05 14:55 52.34946 -7.35872 34084 ft 468 kts 281°
2026-05-05 14:55 52.36181 -7.46293 34084 ft 467 kts 281°
2026-05-05 14:56 52.37406 -7.56715 34085 ft 467 kts 280°
2026-05-05 14:56 52.38621 -7.67138 34086 ft 467 kts 280°
2026-05-05 14:57 52.39827 -7.77564 34088 ft 466 kts 280°
2026-05-05 14:57 52.41029 -7.88043 34089 ft 466 kts 280°
2026-05-05 14:58 52.42213 -7.98456 34091 ft 466 kts 280°
2026-05-05 14:58 52.43390 -8.08883 34092 ft 466 kts 280°
2026-05-05 14:59 52.44557 -8.19317 34094 ft 466 kts 280°
2026-05-05 14:59 52.45714 -8.29739 34098 ft 466 kts 280°
2026-05-05 15:00 52.46675 -8.38474 34099 ft 465 kts 280°
2026-05-05 15:00 52.48004 -8.50651 34104 ft 465 kts 280°
2026-05-05 15:01 52.49131 -8.61071 34107 ft 465 kts 280°
2026-05-05 15:01 52.50249 -8.71500 34109 ft 465 kts 280°
2026-05-05 15:02 52.51357 -8.81930 34110 ft 465 kts 280°
2026-05-05 15:02 52.52456 -8.92364 34111 ft 465 kts 280°
2026-05-05 15:03 52.53545 -9.02792 34110 ft 464 kts 280°
2026-05-05 15:03 52.54631 -9.13288 34110 ft 464 kts 280°
2026-05-05 15:04 52.55701 -9.23721 34110 ft 464 kts 280°
2026-05-05 15:04 52.56762 -9.34161 34110 ft 464 kts 280°
2026-05-05 15:05 52.58336 -9.49837 34110 ft 464 kts 279°
2026-05-05 15:06 52.59375 -9.60300 34112 ft 464 kts 279°
2026-05-05 15:06 52.60403 -9.70755 34112 ft 464 kts 279°
2026-05-05 15:07 52.61428 -9.81273 34112 ft 463 kts 279°
2026-05-05 15:07 52.62437 -9.91733 34112 ft 464 kts 279°
2026-05-05 15:08 52.63437 -10.02194 34113 ft 463 kts 279°
2026-05-05 15:08 52.64428 -10.12656 34112 ft 463 kts 279°
2026-05-05 15:09 52.65407 -10.23110 34112 ft 463 kts 279°
2026-05-05 15:09 52.66378 -10.33565 34112 ft 463 kts 279°
2026-05-05 15:10 52.67184 -10.42331 34112 ft 463 kts 279°
2026-05-05 15:10 52.68137 -10.52793 34112 ft 462 kts 279°
2026-05-05 15:11 52.69081 -10.63253 34113 ft 462 kts 279°
2026-05-05 15:11 52.70013 -10.73693 34112 ft 461 kts 279°
2026-05-05 15:12 52.70936 -10.84141 34112 ft 461 kts 279°
2026-05-05 15:12 52.71856 -10.94660 34113 ft 461 kts 279°
2026-05-05 15:13 52.72760 -11.05112 34112 ft 460 kts 279°
2026-05-05 15:13 52.73653 -11.15538 34113 ft 460 kts 279°
2026-05-05 15:14 52.74537 -11.25975 34113 ft 460 kts 279°
2026-05-05 15:14 52.75412 -11.36421 34120 ft 460 kts 278°
2026-05-05 15:14 52.75847 -11.41658 34376 ft 462 kts 278°
2026-05-05 15:15 52.76281 -11.46904 34669 ft 462 kts 278°
2026-05-05 15:15 52.76713 -11.52164 34936 ft 463 kts 278°
2026-05-05 15:15 52.77142 -11.57413 35378 ft 459 kts 278°
2026-05-05 15:15 52.77571 -11.62690 35707 ft 459 kts 278°
2026-05-05 15:16 52.77994 -11.67918 35934 ft 460 kts 278°
2026-05-05 15:16 52.78414 -11.73146 36084 ft 461 kts 278°
2026-05-05 15:16 52.78833 -11.78392 36111 ft 461 kts 278°
2026-05-05 15:17 52.79663 -11.88869 36114 ft 461 kts 278°
2026-05-05 15:17 52.80483 -11.99345 36114 ft 460 kts 278°
2026-05-05 15:18 52.81294 -12.09818 36113 ft 459 kts 278°
2026-05-05 15:18 52.82094 -12.20279 36115 ft 459 kts 277°
2026-05-05 15:19 52.82890 -12.30807 36114 ft 459 kts 277°
2026-05-05 15:19 52.83672 -12.41277 36116 ft 459 kts 277°
2026-05-05 15:20 52.84444 -12.51748 36116 ft 459 kts 277°
2026-05-05 15:20 52.85207 -12.62216 36117 ft 458 kts 277°
2026-05-05 15:21 52.85959 -12.72668 36117 ft 458 kts 277°
2026-05-05 15:21 52.86702 -12.83126 36117 ft 458 kts 277°
2026-05-05 15:22 52.87489 -12.93577 36118 ft 458 kts 278°
2026-05-05 15:22 52.88403 -13.04062 36117 ft 457 kts 278°
2026-05-05 15:23 52.89290 -13.14471 36118 ft 457 kts 278°
2026-05-05 15:23 52.90161 -13.24879 36118 ft 457 kts 278°
2026-05-05 15:24 52.91023 -13.35309 36119 ft 457 kts 278°
2026-05-05 15:24 52.91874 -13.45738 36119 ft 457 kts 278°
2026-05-05 15:25 52.92716 -13.56171 36119 ft 457 kts 278°
2026-05-05 15:25 52.93554 -13.66672 36119 ft 457 kts 277°
2026-05-05 15:26 52.94378 -13.77109 36119 ft 457 kts 277°
2026-05-05 15:26 52.95190 -13.87535 36119 ft 456 kts 277°
2026-05-05 15:27 52.95994 -13.97961 36120 ft 456 kts 277°
2026-05-05 15:27 52.96788 -14.08391 36120 ft 457 kts 277°
2026-05-05 15:28 52.97574 -14.18830 36120 ft 457 kts 277°
2026-05-05 15:28 52.98355 -14.29334 36120 ft 457 kts 277°
2026-05-05 15:29 52.99122 -14.39774 36120 ft 456 kts 277°
2026-05-05 15:29 52.99917 -14.50201 36120 ft 455 kts 277°
2026-05-05 15:30 53.00689 -14.60623 36121 ft 456 kts 276°
2026-05-05 15:30 53.01409 -14.71060 36121 ft 456 kts 276°
2026-05-05 15:31 53.02118 -14.81517 36122 ft 457 kts 276°
2026-05-05 15:31 53.02824 -14.91991 36122 ft 457 kts 276°
2026-05-05 15:32 53.04086 -15.02371 36124 ft 459 kts 286°
2026-05-05 15:32 53.06214 -15.12432 36124 ft 465 kts 290°
2026-05-05 15:33 53.08508 -15.22474 36124 ft 465 kts 289°
2026-05-05 15:33 53.10748 -15.32526 36125 ft 464 kts 289°
2026-05-05 15:34 53.12968 -15.42631 36125 ft 464 kts 289°
2026-05-05 15:34 53.15170 -15.52736 36125 ft 465 kts 289°
2026-05-05 15:35 53.17454 -15.62784 36126 ft 465 kts 289°
2026-05-05 15:35 53.19700 -15.72865 36126 ft 465 kts 289°
2026-05-05 15:36 53.21916 -15.82974 36127 ft 465 kts 289°
2026-05-05 15:36 53.24131 -15.93175 36127 ft 465 kts 289°
2026-05-05 15:37 53.26317 -16.03314 36128 ft 465 kts 289°
2026-05-05 15:37 53.28498 -16.13486 36128 ft 466 kts 289°
2026-05-05 15:38 53.30672 -16.23681 36129 ft 466 kts 288°
2026-05-05 15:38 53.32837 -16.33880 36130 ft 466 kts 288°
2026-05-05 15:39 53.34991 -16.44089 36129 ft 466 kts 288°
2026-05-05 15:39 53.37153 -16.54380 36131 ft 466 kts 288°
2026-05-05 15:40 53.39292 -16.64616 36131 ft 466 kts 288°
2026-05-05 15:40 53.41420 -16.74852 36131 ft 466 kts 288°
2026-05-05 15:41 53.43541 -16.85107 36132 ft 466 kts 288°
2026-05-05 15:41 53.45653 -16.95370 36132 ft 466 kts 288°
2026-05-05 15:42 53.47761 -17.05667 36133 ft 467 kts 288°
2026-05-05 15:42 53.49875 -17.16047 36133 ft 467 kts 288°
2026-05-05 15:43 53.51966 -17.26367 36134 ft 468 kts 288°
2026-05-05 15:43 53.54049 -17.36708 36135 ft 469 kts 288°
2026-05-05 15:44 53.56129 -17.47081 36135 ft 468 kts 288°
2026-05-05 15:44 53.58196 -17.57448 36135 ft 468 kts 288°
2026-05-05 15:45 53.60256 -17.67834 36136 ft 468 kts 288°
2026-05-05 15:45 53.62308 -17.78239 36137 ft 470 kts 288°
2026-05-05 15:46 53.64370 -17.88744 36137 ft 470 kts 288°
2026-05-05 15:46 53.66408 -17.99190 36138 ft 470 kts 288°
2026-05-05 15:47 53.68436 -18.09639 36138 ft 470 kts 288°
2026-05-05 15:47 53.70458 -18.20112 36139 ft 470 kts 288°
2026-05-05 15:48 53.72467 -18.30577 36139 ft 470 kts 288°
2026-05-05 15:48 53.74469 -18.41063 36140 ft 470 kts 287°
2026-05-05 15:49 53.76462 -18.51559 36141 ft 470 kts 287°
2026-05-05 15:49 53.78459 -18.62132 36141 ft 470 kts 287°
2026-05-05 15:50 53.80432 -18.72641 36142 ft 470 kts 287°
2026-05-05 15:50 53.82397 -18.83166 36142 ft 470 kts 287°
2026-05-05 15:51 53.84355 -18.93712 36143 ft 470 kts 287°
2026-05-05 15:51 53.86303 -19.04265 36143 ft 470 kts 288°
2026-05-05 15:52 53.88245 -19.14840 36145 ft 471 kts 288°
2026-05-05 15:52 53.90193 -19.25515 36145 ft 472 kts 288°
2026-05-05 15:53 53.92122 -19.36143 36145 ft 472 kts 288°
2026-05-05 15:53 53.94047 -19.46791 36146 ft 473 kts 288°
2026-05-05 15:54 53.96019 -19.57436 36147 ft 473 kts 288°
2026-05-05 15:54 53.97915 -19.68136 36147 ft 474 kts 288°
2026-05-05 15:55 53.99791 -19.78859 36148 ft 474 kts 287°
2026-05-05 15:55 54.01677 -19.89671 36148 ft 475 kts 288°
2026-05-05 15:56 54.03294 -20.00533 36152 ft 475 kts 280°
2026-05-05 15:56 54.03956 -20.11723 36150 ft 477 kts 275°
2026-05-05 15:57 54.04304 -20.22980 36150 ft 477 kts 274°
2026-05-05 15:57 54.04663 -20.34240 36191 ft 477 kts 275°
2026-05-05 15:58 54.05037 -20.45491 36204 ft 477 kts 275°
2026-05-05 15:58 54.05407 -20.56743 36206 ft 477 kts 275°
2026-05-05 15:59 54.05886 -20.68048 36207 ft 476 kts 276°
2026-05-05 15:59 54.06334 -20.79275 36207 ft 476 kts 275°
2026-05-05 16:00 54.06741 -20.90499 36208 ft 476 kts 275°
2026-05-05 16:00 54.07126 -21.01732 36209 ft 476 kts 275°
2026-05-05 16:01 54.07496 -21.12978 36210 ft 476 kts 275°
2026-05-05 16:01 54.07853 -21.24222 36211 ft 476 kts 275°
2026-05-05 16:02 54.08201 -21.35534 36212 ft 476 kts 275°
2026-05-05 16:02 54.08536 -21.46758 36213 ft 475 kts 275°
2026-05-05 16:03 54.08806 -21.56093 36213 ft 476 kts 275°
2026-05-05 16:03 54.09122 -21.67338 36214 ft 476 kts 275°
2026-05-05 16:04 54.09429 -21.78654 36215 ft 476 kts 275°
2026-05-05 16:04 54.09724 -21.89905 36216 ft 476 kts 275°
2026-05-05 16:05 54.10008 -22.01155 36217 ft 476 kts 275°
2026-05-05 16:05 54.10282 -22.12410 36217 ft 476 kts 274°
2026-05-05 16:06 54.10545 -22.23665 36218 ft 476 kts 274°
2026-05-05 16:06 54.10798 -22.34929 36219 ft 476 kts 274°
2026-05-05 16:07 54.11040 -22.46193 36220 ft 477 kts 274°
2026-05-05 16:07 54.11274 -22.57554 36220 ft 477 kts 274°
2026-05-05 16:08 54.11495 -22.68822 36230 ft 477 kts 274°
2026-05-05 16:08 54.11707 -22.80118 36232 ft 478 kts 274°
2026-05-05 16:09 54.11907 -22.91407 36233 ft 478 kts 274°
2026-05-05 16:09 54.12097 -23.02709 36234 ft 478 kts 274°
2026-05-05 16:10 54.12277 -23.14030 36234 ft 478 kts 274°
2026-05-05 16:10 54.12447 -23.25424 36235 ft 479 kts 274°
2026-05-05 16:11 54.12606 -23.36766 36236 ft 479 kts 274°
2026-05-05 16:12 54.12892 -23.59429 36250 ft 479 kts 274°
2026-05-05 16:13 54.13189 -23.87824 36290 ft 479 kts 274°
2026-05-05 16:13 54.13289 -23.99177 36301 ft 480 kts 274°
2026-05-05 16:14 54.13458 -24.21972 36304 ft 480 kts 274°
2026-05-05 16:15 54.13584 -24.44705 36307 ft 480 kts 274°
2026-05-05 16:16 54.13666 -24.67432 36309 ft 480 kts 274°
2026-05-05 16:17 54.13700 -24.84566 36312 ft 481 kts 274°
2026-05-05 16:18 54.13710 -25.01644 36314 ft 481 kts 274°
2026-05-05 16:19 54.13696 -25.18721 36315 ft 481 kts 274°
2026-05-05 16:19 54.13657 -25.35824 36318 ft 482 kts 274°
2026-05-05 16:20 54.13567 -25.58703 36320 ft 482 kts 274°
2026-05-05 16:22 54.13395 -25.87237 36337 ft 482 kts 274°
2026-05-05 16:23 54.13208 -26.10056 36420 ft 483 kts 273°
2026-05-05 16:23 54.13039 -26.27251 36420 ft 482 kts 273°
2026-05-05 16:24 54.12914 -26.38668 36421 ft 482 kts 273°
2026-05-05 16:25 54.12705 -26.55768 36421 ft 481 kts 273°
2026-05-05 16:25 54.12472 -26.72846 36432 ft 481 kts 273°
2026-05-05 16:26 54.12125 -26.95590 36434 ft 480 kts 273°
2026-05-05 16:27 54.11935 -27.06999 36434 ft 479 kts 273°
2026-05-05 16:27 54.11735 -27.18329 36442 ft 479 kts 272°
2026-05-05 16:28 54.11524 -27.29667 36443 ft 479 kts 272°
2026-05-05 16:28 54.11304 -27.40983 36444 ft 479 kts 272°
2026-05-05 16:29 54.11072 -27.52300 36444 ft 478 kts 272°
2026-05-05 16:29 54.10830 -27.63600 36444 ft 478 kts 272°
2026-05-05 16:30 54.10576 -27.74977 36445 ft 478 kts 272°
2026-05-05 16:30 54.10313 -27.86277 36445 ft 478 kts 272°
2026-05-05 16:31 54.10040 -27.97575 36446 ft 478 kts 272°
2026-05-05 16:31 54.09755 -28.08879 36446 ft 478 kts 272°
2026-05-05 16:32 54.09460 -28.20179 36446 ft 478 kts 272°
2026-05-05 16:32 54.09155 -28.31477 36447 ft 478 kts 271°
2026-05-05 16:33 54.08839 -28.42772 36447 ft 478 kts 271°
2026-05-05 16:33 54.08511 -28.54120 36447 ft 477 kts 271°
2026-05-05 16:34 54.08175 -28.65386 36448 ft 477 kts 271°
2026-05-05 16:34 54.07828 -28.76637 36449 ft 476 kts 271°
2026-05-05 16:35 54.07472 -28.87874 36448 ft 475 kts 271°
2026-05-05 16:35 54.07106 -28.99082 36449 ft 475 kts 270°
2026-05-05 16:36 54.06727 -29.10354 36449 ft 474 kts 270°
2026-05-05 16:36 54.06341 -29.21535 36450 ft 474 kts 270°
2026-05-05 16:37 54.05945 -29.32707 36450 ft 473 kts 270°
2026-05-05 16:37 54.05539 -29.43859 36451 ft 473 kts 270°
2026-05-05 16:38 54.05188 -29.55004 36451 ft 472 kts 270°
2026-05-05 16:38 54.04756 -29.66130 36452 ft 472 kts 269°
2026-05-05 16:39 54.04296 -29.77265 36452 ft 472 kts 269°
2026-05-05 16:39 54.03826 -29.88463 36452 ft 472 kts 269°
2026-05-05 16:40 54.03411 -29.99594 36453 ft 471 kts 272°
2026-05-05 16:40 54.03648 -30.10700 36447 ft 470 kts 277°
2026-05-05 16:41 54.04127 -30.21752 36447 ft 469 kts 277°
2026-05-05 16:41 54.04561 -30.32802 36449 ft 469 kts 276°
2026-05-05 16:42 54.04962 -30.43856 36448 ft 469 kts 276°
2026-05-05 16:42 54.05344 -30.55002 36444 ft 469 kts 276°
2026-05-05 16:43 54.05790 -30.66076 36444 ft 469 kts 277°
2026-05-05 16:43 54.06248 -30.77141 36444 ft 470 kts 276°
2026-05-05 16:44 54.06659 -30.88233 36445 ft 471 kts 275°
2026-05-05 16:44 54.07045 -30.99342 36445 ft 471 kts 275°
2026-05-05 16:45 54.07415 -31.10479 36446 ft 472 kts 275°
2026-05-05 16:45 54.07772 -31.21636 36385 ft 473 kts 274°
2026-05-05 16:46 54.08120 -31.32874 36363 ft 473 kts 274°
2026-05-05 16:46 54.08456 -31.44048 36363 ft 474 kts 274°
2026-05-05 16:47 54.08782 -31.55242 36362 ft 474 kts 274°
2026-05-05 16:47 54.09098 -31.66459 36362 ft 475 kts 273°
2026-05-05 16:48 54.09403 -31.77684 36362 ft 475 kts 273°
2026-05-05 16:48 54.09698 -31.88913 36362 ft 476 kts 273°
2026-05-05 16:49 54.09985 -32.00235 36361 ft 476 kts 273°
2026-05-05 16:49 54.10260 -32.11481 36360 ft 476 kts 273°
2026-05-05 16:50 54.10523 -32.22719 36360 ft 476 kts 273°
2026-05-05 16:50 54.10777 -32.33968 36360 ft 476 kts 272°
2026-05-05 16:51 54.11020 -32.45233 36359 ft 477 kts 272°
2026-05-05 16:51 54.11253 -32.56504 36359 ft 477 kts 272°
2026-05-05 16:52 54.11477 -32.67866 36358 ft 478 kts 272°
2026-05-05 16:52 54.11689 -32.79174 36358 ft 478 kts 272°
2026-05-05 16:53 54.11892 -32.90500 36358 ft 479 kts 271°
2026-05-05 16:53 54.12084 -33.01859 36357 ft 481 kts 271°
2026-05-05 16:54 54.12266 -33.13248 36356 ft 482 kts 271°
2026-05-05 16:54 54.12437 -33.24673 36356 ft 483 kts 270°
2026-05-05 16:55 54.12598 -33.36112 36355 ft 484 kts 270°
2026-05-05 16:55 54.12749 -33.47666 36355 ft 485 kts 270°
2026-05-05 16:56 54.12889 -33.59172 36354 ft 486 kts 269°
2026-05-05 16:56 54.12997 -33.68739 36354 ft 487 kts 269°
2026-05-05 16:57 54.13117 -33.80279 36353 ft 487 kts 269°
2026-05-05 16:57 54.13225 -33.91815 36353 ft 488 kts 269°
2026-05-05 16:58 54.13324 -34.03436 36352 ft 488 kts 269°
2026-05-05 16:58 54.13411 -34.14990 36352 ft 488 kts 269°
2026-05-05 16:59 54.13486 -34.26545 36351 ft 488 kts 269°
2026-05-05 16:59 54.13551 -34.38104 36350 ft 488 kts 268°
2026-05-05 17:00 54.13605 -34.49666 36349 ft 489 kts 268°
2026-05-05 17:00 54.13648 -34.61239 36349 ft 489 kts 268°
2026-05-05 17:01 54.13680 -34.72900 36348 ft 490 kts 268°
2026-05-05 17:01 54.13700 -34.84514 36347 ft 491 kts 268°
2026-05-05 17:02 54.13710 -34.96143 36347 ft 492 kts 267°
2026-05-05 17:02 54.13708 -35.07806 36346 ft 493 kts 267°
2026-05-05 17:03 54.13695 -35.19488 36345 ft 494 kts 267°
2026-05-05 17:03 54.13670 -35.31209 36344 ft 495 kts 266°
2026-05-05 17:04 54.13634 -35.42952 36343 ft 496 kts 266°
2026-05-05 17:04 54.13586 -35.54800 36343 ft 498 kts 266°
2026-05-05 17:05 54.13527 -35.66585 36341 ft 498 kts 265°
2026-05-05 17:05 54.13456 -35.78401 36341 ft 499 kts 265°
2026-05-05 17:06 54.13373 -35.90222 36340 ft 500 kts 265°
2026-05-05 17:06 54.13279 -36.02048 36339 ft 500 kts 265°
2026-05-05 17:07 54.13173 -36.13873 36338 ft 500 kts 265°
2026-05-05 17:07 54.13054 -36.25785 36337 ft 500 kts 265°
2026-05-05 17:08 54.12925 -36.37613 36336 ft 499 kts 265°
2026-05-05 17:08 54.12785 -36.49438 36257 ft 500 kts 265°
2026-05-05 17:09 54.12632 -36.61289 36160 ft 501 kts 265°
2026-05-05 17:09 54.12468 -36.73147 36150 ft 501 kts 264°
2026-05-05 17:10 54.12291 -36.85021 36148 ft 502 kts 264°
2026-05-05 17:10 54.12102 -36.97002 36150 ft 504 kts 264°
2026-05-05 17:11 54.11901 -37.08919 36149 ft 504 kts 264°
2026-05-05 17:11 54.11689 -37.20849 36199 ft 504 kts 264°
2026-05-05 17:12 54.11464 -37.32796 36230 ft 506 kts 264°
2026-05-05 17:12 54.11227 -37.44762 36230 ft 506 kts 263°
2026-05-05 17:13 54.10978 -37.56732 36229 ft 506 kts 263°
2026-05-05 17:13 54.10717 -37.68716 36227 ft 507 kts 263°
2026-05-05 17:14 54.10442 -37.80795 36226 ft 508 kts 263°
2026-05-05 17:14 54.10156 -37.92809 36225 ft 508 kts 263°
2026-05-05 17:15 54.09858 -38.04815 36224 ft 508 kts 263°
2026-05-05 17:15 54.09549 -38.16826 36222 ft 508 kts 263°
2026-05-05 17:16 54.09227 -38.28831 36221 ft 508 kts 263°
2026-05-05 17:16 54.08894 -38.40832 36220 ft 508 kts 263°
2026-05-05 17:17 54.08546 -38.52899 36218 ft 508 kts 262°
2026-05-05 17:17 54.08189 -38.64885 36217 ft 508 kts 262°
2026-05-05 17:18 54.07820 -38.76870 36216 ft 507 kts 262°
2026-05-05 17:18 54.07440 -38.88845 36215 ft 507 kts 262°
2026-05-05 17:19 54.07048 -39.00815 36214 ft 507 kts 262°
2026-05-05 17:19 54.06644 -39.12770 36212 ft 506 kts 262°
2026-05-05 17:20 54.06229 -39.24712 36210 ft 506 kts 262°
2026-05-05 17:20 54.05800 -39.36721 36210 ft 505 kts 262°
2026-05-05 17:21 54.05383 -39.48635 36208 ft 505 kts 263°
2026-05-05 17:22 54.04743 -39.66472 36207 ft 504 kts 262°
2026-05-05 17:22 54.04252 -39.78344 36205 ft 503 kts 262°
2026-05-05 17:23 54.03753 -39.90202 36204 ft 503 kts 262°
2026-05-05 17:23 54.03253 -40.02044 36202 ft 503 kts 261°
2026-05-05 17:24 54.02568 -40.13925 36202 ft 502 kts 259°
2026-05-05 17:24 54.01828 -40.25707 36200 ft 502 kts 259°
2026-05-05 17:25 54.01083 -40.37488 36199 ft 502 kts 259°
2026-05-05 17:25 54.00329 -40.49283 36197 ft 503 kts 259°
2026-05-05 17:26 53.99577 -40.61068 36197 ft 499 kts 260°
2026-05-05 17:26 53.98936 -40.72782 36195 ft 498 kts 260°
2026-05-05 17:27 53.98234 -40.84546 36194 ft 497 kts 260°
2026-05-05 17:27 53.97501 -40.96199 36192 ft 497 kts 259°
2026-05-05 17:28 53.96749 -41.07836 36191 ft 496 kts 259°
2026-05-05 17:28 53.95982 -41.19464 36190 ft 496 kts 259°
2026-05-05 17:29 53.95202 -41.31099 36189 ft 497 kts 259°
2026-05-05 17:29 53.94410 -41.42742 36187 ft 497 kts 259°
2026-05-05 17:30 53.93605 -41.54395 36186 ft 498 kts 259°
2026-05-05 17:30 53.92782 -41.66127 36185 ft 499 kts 259°
2026-05-05 17:31 53.91952 -41.77799 36184 ft 499 kts 259°
2026-05-05 17:31 53.91111 -41.89467 36182 ft 500 kts 259°
2026-05-05 17:32 53.90257 -42.01150 36181 ft 500 kts 259°
2026-05-05 17:32 53.89391 -42.12828 36180 ft 500 kts 259°
2026-05-05 17:33 53.88509 -42.24569 36179 ft 499 kts 258°
2026-05-05 17:33 53.87623 -42.36214 36177 ft 499 kts 258°
2026-05-05 17:34 53.86727 -42.47831 36176 ft 498 kts 258°
2026-05-05 17:34 53.85821 -42.59438 36175 ft 497 kts 258°
2026-05-05 17:35 53.84905 -42.71013 36174 ft 496 kts 258°
2026-05-05 17:35 53.83979 -42.82574 36172 ft 496 kts 258°
2026-05-05 17:36 53.83043 -42.94119 36171 ft 496 kts 258°
2026-05-05 17:36 53.82090 -43.05727 36170 ft 495 kts 258°
2026-05-05 17:37 53.81131 -43.17255 36168 ft 495 kts 258°
2026-05-05 17:37 53.80163 -43.28772 36167 ft 496 kts 258°
2026-05-05 17:38 53.79181 -43.40304 36164 ft 497 kts 258°
2026-05-05 17:38 53.78187 -43.51857 36165 ft 498 kts 258°
2026-05-05 17:39 53.77180 -43.63422 36163 ft 498 kts 257°
2026-05-05 17:39 53.76154 -43.75067 36162 ft 499 kts 257°
2026-05-05 17:40 53.75122 -43.86645 36161 ft 499 kts 257°
2026-05-05 17:40 53.74078 -43.98223 36159 ft 499 kts 257°
2026-05-05 17:41 53.73024 -44.09786 36158 ft 499 kts 257°
2026-05-05 17:41 53.71958 -44.21355 36157 ft 499 kts 257°
2026-05-05 17:42 53.70883 -44.32898 36155 ft 498 kts 257°
2026-05-05 17:42 53.69791 -44.44497 36154 ft 497 kts 257°
2026-05-05 17:43 53.68696 -44.56000 36153 ft 497 kts 257°
2026-05-05 17:43 53.67593 -44.67470 36151 ft 495 kts 257°
2026-05-05 17:44 53.66482 -44.78902 36151 ft 495 kts 257°
2026-05-05 17:44 53.65361 -44.90323 36149 ft 494 kts 257°
2026-05-05 17:45 53.64230 -45.01721 36147 ft 494 kts 257°
2026-05-05 17:45 53.63090 -45.13105 36146 ft 493 kts 257°
2026-05-05 17:46 53.61932 -45.24547 36145 ft 493 kts 256°
2026-05-05 17:46 53.60769 -45.35920 36143 ft 494 kts 256°
2026-05-05 17:47 53.59596 -45.47289 36117 ft 494 kts 256°
2026-05-05 17:47 53.58410 -45.58672 36001 ft 495 kts 256°
2026-05-05 17:48 53.57211 -45.70062 35876 ft 495 kts 256°
2026-05-05 17:48 53.56003 -45.81433 35837 ft 495 kts 256°
2026-05-05 17:49 53.54775 -45.92883 35833 ft 495 kts 256°
2026-05-05 17:49 53.53543 -46.04266 35830 ft 496 kts 256°
2026-05-05 17:50 53.52300 -46.15635 35827 ft 495 kts 256°
2026-05-05 17:50 53.51049 -46.26981 35825 ft 495 kts 256°
2026-05-05 17:51 53.49787 -46.38317 35822 ft 494 kts 256°
2026-05-05 17:51 53.48722 -46.47804 35820 ft 494 kts 256°
2026-05-05 17:52 53.47236 -46.60931 35816 ft 493 kts 256°
2026-05-05 17:52 53.46156 -46.70385 35814 ft 493 kts 256°
2026-05-05 17:53 53.44858 -46.81656 35811 ft 492 kts 256°
2026-05-05 17:53 53.43550 -46.92908 35808 ft 492 kts 255°
2026-05-05 17:54 53.42234 -47.04141 35804 ft 492 kts 255°
2026-05-05 17:54 53.40905 -47.15381 35802 ft 492 kts 255°
2026-05-05 17:55 53.39557 -47.26684 35799 ft 493 kts 255°
2026-05-05 17:55 53.38206 -47.37918 35796 ft 493 kts 255°
2026-05-05 17:56 53.36845 -47.49143 35793 ft 493 kts 255°
2026-05-05 17:56 53.35472 -47.60377 35790 ft 493 kts 255°
2026-05-05 17:57 53.34087 -47.71612 35787 ft 494 kts 255°
2026-05-05 17:57 53.32691 -47.82840 35784 ft 494 kts 255°
2026-05-05 17:58 53.31276 -47.94131 35781 ft 494 kts 255°
2026-05-05 17:58 53.29857 -48.05354 35778 ft 494 kts 255°
2026-05-05 17:59 53.28430 -48.16561 35774 ft 493 kts 255°
2026-05-05 17:59 53.26992 -48.27755 35771 ft 493 kts 255°
2026-05-05 18:00 53.25546 -48.38932 35768 ft 493 kts 255°
2026-05-05 18:00 53.24091 -48.50088 35765 ft 492 kts 255°
2026-05-05 18:01 53.22617 -48.61297 35761 ft 491 kts 255°
2026-05-05 18:01 53.21146 -48.72397 35758 ft 491 kts 255°
2026-05-05 18:02 53.19664 -48.83502 35754 ft 491 kts 254°
2026-05-05 18:02 53.18174 -48.94578 35751 ft 490 kts 254°
2026-05-05 18:03 53.16676 -49.05629 35748 ft 490 kts 254°
2026-05-05 18:03 53.15166 -49.16685 35744 ft 490 kts 254°
2026-05-05 18:04 53.13637 -49.27795 35741 ft 489 kts 254°
2026-05-05 18:04 53.12109 -49.38821 35737 ft 489 kts 254°
2026-05-05 18:05 53.10575 -49.49828 35734 ft 489 kts 254°
2026-05-05 18:05 53.09086 -49.60857 35730 ft 489 kts 254°
2026-05-05 18:06 53.07515 -49.71853 35651 ft 489 kts 253°
2026-05-05 18:06 53.05925 -49.82830 35564 ft 489 kts 254°
2026-05-05 18:07 53.04331 -49.93792 35552 ft 488 kts 254°
2026-05-05 18:07 53.02517 -50.04703 35549 ft 487 kts 248°
2026-05-05 18:08 53.00064 -50.15150 35546 ft 485 kts 245°
2026-05-05 18:08 52.97472 -50.25454 35544 ft 484 kts 245°
2026-05-05 18:09 52.94910 -50.35766 35541 ft 484 kts 245°
2026-05-05 18:09 52.92355 -50.46076 35539 ft 484 kts 245°
2026-05-05 18:09 52.91076 -50.51228 35645 ft 485 kts 245°
2026-05-05 18:10 52.89808 -50.56387 35992 ft 484 kts 246°
2026-05-05 18:10 52.88566 -50.61629 36399 ft 482 kts 246°
2026-05-05 18:10 52.87334 -50.66782 36672 ft 484 kts 246°
2026-05-05 18:10 52.86083 -50.71950 36947 ft 484 kts 246°
2026-05-05 18:11 52.84825 -50.77099 37267 ft 483 kts 246°
2026-05-05 18:11 52.83561 -50.82240 37514 ft 484 kts 246°
2026-05-05 18:11 52.82290 -50.87380 37549 ft 484 kts 246°
2026-05-05 18:12 52.79740 -50.97644 37551 ft 484 kts 246°
2026-05-05 18:12 52.77177 -51.07903 37550 ft 484 kts 246°
2026-05-05 18:13 52.74602 -51.18153 37548 ft 484 kts 246°
2026-05-05 18:13 52.72006 -51.28440 37546 ft 483 kts 246°
2026-05-05 18:14 52.69418 -51.38647 37544 ft 483 kts 246°
2026-05-05 18:14 52.66823 -51.48835 37543 ft 483 kts 246°
2026-05-05 18:15 52.64221 -51.59003 37541 ft 482 kts 246°
2026-05-05 18:15 52.61613 -51.69150 37541 ft 482 kts 246°
2026-05-05 18:16 52.59014 -51.79207 37537 ft 476 kts 246°
2026-05-05 18:16 52.56420 -51.89212 37537 ft 477 kts 247°
2026-05-05 18:17 52.53797 -51.99285 37535 ft 477 kts 247°
2026-05-05 18:17 52.51184 -52.09272 37534 ft 476 kts 247°
2026-05-05 18:18 52.48567 -52.19232 37533 ft 476 kts 247°
2026-05-05 18:18 52.45940 -52.29182 37531 ft 476 kts 246°
2026-05-05 18:19 52.43306 -52.39118 37530 ft 476 kts 246°
2026-05-05 18:19 52.40664 -52.49042 37529 ft 476 kts 246°
2026-05-05 18:20 52.38012 -52.58958 37528 ft 476 kts 246°
2026-05-05 18:20 52.35334 -52.68927 37527 ft 476 kts 246°
2026-05-05 18:21 52.32668 -52.78811 37559 ft 476 kts 246°
2026-05-05 18:21 52.29993 -52.88683 37599 ft 476 kts 246°
2026-05-05 18:22 52.27305 -52.98563 37603 ft 477 kts 246°
2026-05-05 18:22 52.24611 -53.08422 37600 ft 476 kts 246°
2026-05-05 18:23 52.21912 -53.18261 37598 ft 476 kts 246°
2026-05-05 18:23 52.19192 -53.28132 37596 ft 475 kts 246°
2026-05-05 18:24 52.16483 -53.37918 37593 ft 474 kts 246°
2026-05-05 18:24 52.13771 -53.47677 37591 ft 473 kts 246°
2026-05-05 18:25 52.11018 -53.57369 37589 ft 472 kts 245°
2026-05-05 18:25 52.08045 -53.66871 37588 ft 472 kts 243°
2026-05-05 18:26 52.05014 -53.76300 37584 ft 471 kts 243°
2026-05-05 18:26 52.01981 -53.85726 37582 ft 471 kts 243°
2026-05-05 18:27 51.98931 -53.95181 37581 ft 471 kts 243°
2026-05-05 18:27 51.95893 -54.04565 37580 ft 471 kts 243°
2026-05-05 18:28 51.91387 -54.18675 37578 ft 471 kts 243°
2026-05-05 18:28 51.88325 -54.28027 37577 ft 471 kts 243°
2026-05-05 18:29 51.85253 -54.37360 37577 ft 471 kts 243°
2026-05-05 18:29 51.82158 -54.46755 37577 ft 471 kts 243°
2026-05-05 18:30 51.79050 -54.56032 37565 ft 469 kts 241°
2026-05-05 18:30 51.75669 -54.64945 37578 ft 464 kts 239°
2026-05-05 18:31 51.72256 -54.73736 37583 ft 463 kts 240°
2026-05-05 18:31 51.68853 -54.82531 37584 ft 463 kts 240°
2026-05-05 18:32 51.65453 -54.91315 37586 ft 463 kts 240°
2026-05-05 18:32 51.62051 -55.00084 37588 ft 462 kts 240°
2026-05-05 18:33 51.58699 -55.08969 37591 ft 462 kts 240°
2026-05-05 18:33 51.55350 -55.17759 37595 ft 461 kts 240°
2026-05-05 18:34 51.51979 -55.26509 37598 ft 461 kts 240°
2026-05-05 18:34 51.48599 -55.35227 37602 ft 461 kts 240°
2026-05-05 18:35 51.45203 -55.43944 37606 ft 461 kts 240°
2026-05-05 18:35 51.41803 -55.52637 37609 ft 461 kts 240°
2026-05-05 18:36 51.38393 -55.61324 37613 ft 461 kts 240°
2026-05-05 18:36 51.34954 -55.70054 37623 ft 461 kts 240°
2026-05-05 18:37 51.31531 -55.78715 37623 ft 461 kts 239°
2026-05-05 18:37 51.28100 -55.87366 37622 ft 461 kts 239°
2026-05-05 18:38 51.24668 -55.95991 37619 ft 460 kts 239°
2026-05-05 18:38 51.21235 -56.04588 37619 ft 460 kts 239°
2026-05-05 18:39 51.17794 -56.13179 37624 ft 460 kts 239°
2026-05-05 18:39 51.14326 -56.21807 37627 ft 460 kts 239°
2026-05-05 18:40 51.10878 -56.30357 37630 ft 460 kts 239°
2026-05-05 18:40 51.07422 -56.38899 37634 ft 460 kts 239°
2026-05-05 18:41 51.03963 -56.47421 37638 ft 460 kts 239°
2026-05-05 18:41 51.00497 -56.55931 37641 ft 460 kts 239°
2026-05-05 18:42 50.97024 -56.64431 37645 ft 460 kts 239°
2026-05-05 18:42 50.93521 -56.72978 37648 ft 460 kts 239°
2026-05-05 18:43 50.90035 -56.81453 37651 ft 460 kts 239°
2026-05-05 18:43 50.86548 -56.89903 37654 ft 459 kts 239°
2026-05-05 18:44 50.83057 -56.98338 37657 ft 459 kts 239°
2026-05-05 18:44 50.80147 -57.05352 37655 ft 460 kts 239°
2026-05-05 18:45 50.76613 -57.13837 37661 ft 459 kts 239°
2026-05-05 18:45 50.73105 -57.22229 37677 ft 458 kts 239°
2026-05-05 18:46 50.69595 -57.30602 37683 ft 459 kts 239°
2026-05-05 18:46 50.66073 -57.38981 37685 ft 459 kts 239°
2026-05-05 18:47 50.62543 -57.47348 37679 ft 459 kts 239°
2026-05-05 18:47 50.59014 -57.55689 37682 ft 458 kts 239°
2026-05-05 18:48 50.55454 -57.64074 37687 ft 458 kts 239°
2026-05-05 18:48 50.51914 -57.72388 37690 ft 458 kts 239°
2026-05-05 18:49 50.48371 -57.80680 37694 ft 458 kts 239°
2026-05-05 18:49 50.44822 -57.88960 37698 ft 458 kts 239°
2026-05-05 18:50 50.41266 -57.97233 37701 ft 458 kts 239°
2026-05-05 18:50 50.37710 -58.05477 37704 ft 457 kts 239°
2026-05-05 18:51 50.34150 -58.13707 37707 ft 457 kts 239°
2026-05-05 18:51 50.30556 -58.21988 37710 ft 457 kts 239°
2026-05-05 18:52 50.26985 -58.30190 37712 ft 457 kts 239°
2026-05-05 18:52 50.23405 -58.38387 37714 ft 457 kts 239°
2026-05-05 18:53 50.19819 -58.46573 37731 ft 457 kts 239°
2026-05-05 18:53 50.16228 -58.54745 37736 ft 457 kts 238°
2026-05-05 18:54 50.12631 -58.62905 37737 ft 458 kts 238°
2026-05-05 18:54 50.08999 -58.71118 37738 ft 458 kts 238°
2026-05-05 18:55 50.05388 -58.79260 37740 ft 458 kts 238°
2026-05-05 18:55 50.01773 -58.87386 37741 ft 458 kts 238°
2026-05-05 18:56 49.98153 -58.95495 37740 ft 457 kts 238°
2026-05-05 18:56 49.94539 -59.03569 37741 ft 455 kts 238°
2026-05-05 18:57 49.90932 -59.11603 37742 ft 455 kts 238°
2026-05-05 18:57 49.87312 -59.19641 37741 ft 455 kts 238°
2026-05-05 18:58 49.83664 -59.27715 37741 ft 455 kts 238°
2026-05-05 18:58 49.80032 -59.35730 37741 ft 455 kts 238°
2026-05-05 18:59 49.76400 -59.43722 37740 ft 454 kts 238°
2026-05-05 18:59 49.72766 -59.51695 37740 ft 454 kts 238°
2026-05-05 19:00 49.69127 -59.59652 37740 ft 454 kts 238°
2026-05-05 19:00 49.65479 -59.67608 37739 ft 454 kts 238°
2026-05-05 19:01 49.61825 -59.75551 37738 ft 455 kts 238°
2026-05-05 19:01 49.58145 -59.83529 37738 ft 455 kts 238°
2026-05-05 19:02 49.54481 -59.91446 37737 ft 455 kts 238°
2026-05-05 19:02 49.50813 -59.99349 37737 ft 454 kts 238°
2026-05-05 19:03 49.47144 -60.07231 37736 ft 453 kts 238°
2026-05-05 19:03 49.43481 -60.15077 37736 ft 452 kts 238°
2026-05-05 19:04 49.39815 -60.22908 37736 ft 452 kts 238°
2026-05-05 19:04 49.36122 -60.30770 37736 ft 451 kts 238°
2026-05-05 19:05 49.32461 -60.38544 37736 ft 450 kts 238°
2026-05-05 19:05 49.28800 -60.46295 37736 ft 450 kts 238°
2026-05-05 19:06 49.25134 -60.54033 37737 ft 449 kts 238°
2026-05-05 19:06 49.21472 -60.61741 37762 ft 448 kts 238°
2026-05-05 19:07 49.17810 -60.69425 37763 ft 447 kts 238°
2026-05-05 19:07 49.14150 -60.77086 37763 ft 447 kts 238°
2026-05-05 19:08 49.10468 -60.84768 37765 ft 446 kts 237°
2026-05-05 19:08 49.06809 -60.92381 37766 ft 445 kts 237°
2026-05-05 19:09 49.03152 -60.99970 37767 ft 445 kts 237°
2026-05-05 19:09 48.99486 -61.07555 37769 ft 445 kts 237°
2026-05-05 19:10 48.95820 -61.15118 37771 ft 445 kts 237°
2026-05-05 19:10 48.92154 -61.22660 37773 ft 443 kts 237°
2026-05-05 19:11 48.88467 -61.30225 37775 ft 443 kts 237°
2026-05-05 19:11 48.84804 -61.37718 37777 ft 442 kts 237°
2026-05-05 19:12 48.81141 -61.45193 37780 ft 442 kts 237°
2026-05-05 19:12 48.77473 -61.52654 37782 ft 442 kts 237°
2026-05-05 19:13 48.73802 -61.60102 37785 ft 442 kts 237°
2026-05-05 19:13 48.70130 -61.67533 37787 ft 440 kts 237°
2026-05-05 19:14 48.66440 -61.74978 37789 ft 440 kts 237°
2026-05-05 19:14 48.62772 -61.82359 37784 ft 440 kts 237°
2026-05-05 19:15 48.59097 -61.89734 37766 ft 440 kts 237°
2026-05-05 19:15 48.55425 -61.97081 37764 ft 439 kts 236°
2026-05-05 19:16 48.51754 -62.04408 37767 ft 438 kts 236°
2026-05-05 19:16 48.48085 -62.11709 37769 ft 437 kts 236°
2026-05-05 19:17 48.44414 -62.18997 37767 ft 438 kts 236°
2026-05-05 19:17 48.40710 -62.26329 37744 ft 437 kts 236°
2026-05-05 19:18 48.37035 -62.33585 37744 ft 437 kts 236°
2026-05-05 19:18 48.33354 -62.40832 37744 ft 437 kts 236°
2026-05-05 19:19 48.29665 -62.48077 37744 ft 437 kts 236°
2026-05-05 19:19 48.25976 -62.55302 37743 ft 437 kts 236°
2026-05-05 19:20 48.22284 -62.62513 37743 ft 436 kts 236°
2026-05-05 19:20 48.18560 -62.69766 37742 ft 436 kts 236°
2026-05-05 19:21 48.14862 -62.76951 37740 ft 436 kts 236°
2026-05-05 19:21 48.11168 -62.84110 37739 ft 435 kts 236°
2026-05-05 19:22 48.07468 -62.91261 37739 ft 435 kts 236°
2026-05-05 19:22 48.03769 -62.98390 37736 ft 434 kts 236°
2026-05-05 19:23 48.00072 -63.05498 37735 ft 434 kts 236°
2026-05-05 19:23 47.96365 -63.12605 37734 ft 434 kts 236°
2026-05-05 19:24 47.92636 -63.19736 37719 ft 433 kts 236°
2026-05-05 19:24 47.88933 -63.26799 37717 ft 433 kts 236°
2026-05-05 19:25 47.85234 -63.33837 37708 ft 432 kts 236°
2026-05-05 19:25 47.81533 -63.40860 37696 ft 431 kts 235°
2026-05-05 19:26 47.77832 -63.47864 37699 ft 431 kts 235°
2026-05-05 19:26 47.74130 -63.54852 37701 ft 431 kts 235°
2026-05-05 19:27 47.70425 -63.61829 37705 ft 430 kts 235°
2026-05-05 19:27 47.66698 -63.68829 37706 ft 430 kts 235°
2026-05-05 19:28 47.62987 -63.75782 37709 ft 430 kts 235°
2026-05-05 19:28 47.59273 -63.82722 37713 ft 430 kts 235°
2026-05-05 19:29 47.55552 -63.89656 37717 ft 430 kts 235°
2026-05-05 19:29 47.51829 -63.96577 37721 ft 430 kts 235°
2026-05-05 19:30 47.48104 -64.03486 37724 ft 430 kts 235°
2026-05-05 19:30 47.44352 -64.10424 37728 ft 430 kts 235°
2026-05-05 19:31 47.40620 -64.17310 37752 ft 430 kts 235°
2026-05-05 19:31 47.36885 -64.24185 37755 ft 430 kts 234°
2026-05-05 19:32 47.33147 -64.31045 37758 ft 430 kts 234°
2026-05-05 19:32 47.29399 -64.37909 37734 ft 431 kts 234°
2026-05-05 19:33 47.25648 -64.44760 37727 ft 430 kts 234°
2026-05-05 19:33 47.21871 -64.51642 37698 ft 430 kts 234°
2026-05-05 19:34 47.18108 -64.58481 37695 ft 431 kts 234°
2026-05-05 19:35 47.12452 -64.68727 37692 ft 431 kts 234°
2026-05-05 19:35 47.08675 -64.75549 37687 ft 431 kts 234°
2026-05-05 19:36 47.04899 -64.82353 37680 ft 431 kts 234°
2026-05-05 19:36 47.01118 -64.89146 37683 ft 431 kts 234°
2026-05-05 19:37 46.97308 -64.95976 37686 ft 431 kts 234°
2026-05-05 19:37 46.93523 -65.02745 37689 ft 431 kts 234°
2026-05-05 19:38 46.89731 -65.09510 37693 ft 431 kts 234°
2026-05-05 19:38 46.85934 -65.16266 37696 ft 430 kts 234°
2026-05-05 19:39 46.82141 -65.22999 37699 ft 430 kts 234°
2026-05-05 19:39 46.78958 -65.28637 37702 ft 430 kts 233°
2026-05-05 19:40 46.75155 -65.35357 37705 ft 430 kts 233°
2026-05-05 19:40 46.71349 -65.42066 37708 ft 430 kts 233°
2026-05-05 19:41 46.67542 -65.48760 37711 ft 430 kts 233°
2026-05-05 19:41 46.63730 -65.55448 37713 ft 430 kts 233°
2026-05-05 19:42 46.59906 -65.62140 37715 ft 431 kts 233°
2026-05-05 19:42 46.56056 -65.68860 37718 ft 430 kts 233°
2026-05-05 19:43 46.52238 -65.75510 37719 ft 429 kts 233°
2026-05-05 19:43 46.48410 -65.82159 37730 ft 430 kts 233°
2026-05-05 19:44 46.44583 -65.88792 37734 ft 429 kts 233°
2026-05-05 19:44 46.40751 -65.95418 37741 ft 429 kts 233°
2026-05-05 19:45 46.36918 -66.02029 37745 ft 429 kts 233°
2026-05-05 19:45 46.33081 -66.08631 37746 ft 429 kts 233°
2026-05-05 19:46 46.29218 -66.15261 37748 ft 429 kts 233°
2026-05-05 19:46 46.25378 -66.21837 37749 ft 429 kts 233°
2026-05-05 19:47 46.21533 -66.28405 37749 ft 429 kts 233°
2026-05-05 19:47 46.17684 -66.34966 37725 ft 429 kts 233°
2026-05-05 19:48 46.13837 -66.41507 37722 ft 428 kts 233°
2026-05-05 19:48 46.09989 -66.48034 37718 ft 428 kts 233°
2026-05-05 19:49 46.06114 -66.54591 37708 ft 428 kts 233°
2026-05-05 19:49 46.02260 -66.61098 37706 ft 428 kts 232°
2026-05-05 19:50 45.98411 -66.67581 37705 ft 427 kts 232°
2026-05-05 19:50 45.94541 -66.74084 37706 ft 429 kts 232°
2026-05-05 19:51 45.90663 -66.80585 37704 ft 429 kts 232°
2026-05-05 19:51 45.86789 -66.87065 37701 ft 428 kts 232°
2026-05-05 19:52 45.82888 -66.93574 37712 ft 428 kts 232°
2026-05-05 19:52 45.79012 -67.00027 37709 ft 428 kts 232°
2026-05-05 19:53 45.75136 -67.06464 37706 ft 427 kts 232°
2026-05-05 19:53 45.71262 -67.12882 37704 ft 426 kts 232°
2026-05-05 19:54 45.67390 -67.19284 37701 ft 426 kts 232°
2026-05-05 19:54 45.63514 -67.25678 37710 ft 426 kts 232°
2026-05-05 19:55 45.59645 -67.32046 37712 ft 425 kts 232°
2026-05-05 19:55 45.55745 -67.38448 37713 ft 425 kts 231°
2026-05-05 19:56 45.51901 -67.44819 37714 ft 425 kts 232°
2026-05-05 19:56 45.48022 -67.51159 37716 ft 424 kts 231°
2026-05-05 19:57 45.44142 -67.57463 37719 ft 424 kts 231°
2026-05-05 19:57 45.40258 -67.63760 37723 ft 424 kts 231°
2026-05-05 19:58 45.36370 -67.70053 37727 ft 425 kts 231°
2026-05-05 19:58 45.32468 -67.76351 37732 ft 425 kts 231°
2026-05-05 19:59 45.28499 -67.82629 37723 ft 425 kts 231°
2026-05-05 19:59 45.24546 -67.88865 37716 ft 426 kts 231°
2026-05-05 20:00 45.20587 -67.95097 37721 ft 426 kts 231°
2026-05-05 20:00 45.16617 -68.01332 37729 ft 426 kts 230°
2026-05-05 20:01 45.12669 -68.07522 37729 ft 424 kts 230°
2026-05-05 20:01 45.08740 -68.13743 37736 ft 425 kts 231°
2026-05-05 20:02 45.04783 -68.20022 37744 ft 426 kts 231°
2026-05-05 20:02 45.00831 -68.26241 37753 ft 426 kts 230°
2026-05-05 20:03 44.96866 -68.32451 37762 ft 427 kts 230°
2026-05-05 20:03 44.92887 -68.38662 37728 ft 427 kts 230°
2026-05-05 20:04 44.88899 -68.44870 37746 ft 427 kts 230°
2026-05-05 20:04 44.84910 -68.51063 37746 ft 428 kts 230°
2026-05-05 20:05 44.80879 -68.57310 37743 ft 429 kts 230°
2026-05-05 20:05 44.76872 -68.63503 37744 ft 428 kts 230°
2026-05-05 20:06 44.72861 -68.69689 37740 ft 428 kts 230°
2026-05-05 20:06 44.68848 -68.75864 37740 ft 428 kts 230°
2026-05-05 20:07 44.64833 -68.82030 37743 ft 428 kts 230°
2026-05-05 20:07 44.60814 -68.88188 37749 ft 428 kts 230°
2026-05-05 20:08 44.56797 -68.94328 37756 ft 428 kts 230°
2026-05-05 20:08 44.52743 -69.00512 37763 ft 428 kts 230°
2026-05-05 20:09 44.48719 -69.06636 37758 ft 428 kts 230°
2026-05-05 20:09 44.44690 -69.12754 37744 ft 428 kts 229°
2026-05-05 20:10 44.40664 -69.18856 37743 ft 427 kts 229°
2026-05-05 20:10 44.36634 -69.24950 37744 ft 428 kts 229°
2026-05-05 20:11 44.32600 -69.31036 37744 ft 427 kts 229°
2026-05-05 20:11 44.28563 -69.37114 37755 ft 427 kts 229°
2026-05-05 20:12 44.24499 -69.43218 37757 ft 427 kts 229°
2026-05-05 20:12 44.20459 -69.49275 37764 ft 428 kts 229°
2026-05-05 20:13 44.16406 -69.55336 37764 ft 428 kts 229°
2026-05-05 20:13 44.12350 -69.61389 37766 ft 428 kts 229°
2026-05-05 20:14 44.08298 -69.67423 37770 ft 428 kts 229°
2026-05-05 20:14 44.04238 -69.73458 37771 ft 428 kts 229°
2026-05-05 20:15 44.00140 -69.79534 37776 ft 429 kts 229°
2026-05-05 20:15 43.96070 -69.85557 37771 ft 429 kts 229°
2026-05-05 20:16 43.91991 -69.91579 37764 ft 428 kts 229°
2026-05-05 20:16 43.87915 -69.97584 37752 ft 428 kts 229°
2026-05-05 20:17 43.83832 -70.03587 37743 ft 428 kts 228°
2026-05-05 20:17 43.79749 -70.09577 37738 ft 429 kts 228°
2026-05-05 20:18 43.75631 -70.15606 37737 ft 429 kts 228°
2026-05-05 20:18 43.71543 -70.21578 37739 ft 428 kts 228°
2026-05-05 20:19 43.67448 -70.27547 37739 ft 428 kts 228°
2026-05-05 20:19 43.63346 -70.33515 37740 ft 429 kts 228°
2026-05-05 20:20 43.59236 -70.39481 37739 ft 430 kts 228°
2026-05-05 20:20 43.55138 -70.45460 37737 ft 429 kts 228°
2026-05-05 20:21 43.51028 -70.51423 37734 ft 430 kts 228°
2026-05-05 20:21 43.46866 -70.57412 37731 ft 431 kts 227°
2026-05-05 20:22 43.42722 -70.63355 37731 ft 431 kts 227°
2026-05-05 20:22 43.38573 -70.69298 37730 ft 431 kts 227°
2026-05-05 20:23 43.34195 -70.74912 37734 ft 434 kts 218°
2026-05-05 20:23 43.29077 -70.79313 37723 ft 436 kts 212°
2026-05-05 20:24 43.23747 -70.83285 37716 ft 437 kts 211°
2026-05-05 20:24 43.18436 -70.87321 37716 ft 438 kts 212°
2026-05-05 20:25 43.13101 -70.91436 37719 ft 438 kts 212°
2026-05-05 20:25 43.07798 -70.95490 37720 ft 438 kts 212°
2026-05-05 20:26 43.02477 -70.99545 37728 ft 438 kts 212°
2026-05-05 20:26 42.97154 -71.03594 37737 ft 439 kts 211°
2026-05-05 20:27 42.91850 -71.07708 37746 ft 438 kts 215°
2026-05-05 20:27 42.86933 -71.12570 37752 ft 437 kts 220°
2026-05-05 20:28 42.82146 -71.17764 37753 ft 437 kts 220°
2026-05-05 20:28 42.77414 -71.22834 37758 ft 437 kts 220°
2026-05-05 20:29 42.72589 -71.27955 37762 ft 438 kts 219°
2026-05-05 20:29 42.67787 -71.33031 37762 ft 439 kts 219°
2026-05-05 20:30 42.62978 -71.38124 37761 ft 439 kts 220°
2026-05-05 20:30 42.58172 -71.43240 37762 ft 440 kts 219°
2026-05-05 20:31 42.53351 -71.48330 37766 ft 440 kts 219°
2026-05-05 20:31 42.48492 -71.53441 37771 ft 441 kts 219°
2026-05-05 20:32 42.43648 -71.58522 37781 ft 441 kts 219°
2026-05-05 20:32 42.38800 -71.63608 37789 ft 442 kts 219°
2026-05-05 20:33 42.33950 -71.68708 37798 ft 442 kts 219°
2026-05-05 20:33 42.29082 -71.73775 37810 ft 443 kts 219°
2026-05-05 20:34 42.24200 -71.78839 37819 ft 443 kts 218°
2026-05-05 20:34 42.20113 -71.83072 37820 ft 443 kts 218°
2026-05-05 20:35 42.15218 -71.88116 37821 ft 444 kts 217°
2026-05-05 20:35 42.09917 -71.92375 37827 ft 445 kts 209°
2026-05-05 20:36 42.04380 -71.96103 37826 ft 447 kts 208°
2026-05-05 20:36 41.98827 -71.99832 37830 ft 446 kts 208°
2026-05-05 20:37 41.93268 -72.03604 37838 ft 445 kts 208°
2026-05-05 20:37 41.87754 -72.07355 37847 ft 445 kts 208°
2026-05-05 20:38 41.82239 -72.11118 37856 ft 445 kts 209°
2026-05-05 20:38 41.76731 -72.14898 37859 ft 446 kts 208°
2026-05-05 20:39 41.71218 -72.18654 37860 ft 445 kts 208°
2026-05-05 20:39 41.65697 -72.22402 37863 ft 446 kts 208°
2026-05-05 20:40 41.60121 -72.26178 37868 ft 447 kts 208°
2026-05-05 20:40 41.54581 -72.29937 37876 ft 447 kts 209°
2026-05-05 20:41 41.49045 -72.33684 37880 ft 447 kts 208°
2026-05-05 20:41 41.43506 -72.37407 37886 ft 447 kts 208°
2026-05-05 20:42 41.37947 -72.41133 37889 ft 449 kts 208°
2026-05-05 20:42 41.32379 -72.44859 37891 ft 449 kts 208°
2026-05-05 20:43 41.26864 -72.48720 37893 ft 448 kts 213°
2026-05-05 20:43 41.21673 -72.53363 37896 ft 447 kts 217°
2026-05-05 20:44 41.16622 -72.58167 37898 ft 447 kts 217°
2026-05-05 20:44 41.11529 -72.62892 37902 ft 448 kts 217°
2026-05-05 20:45 41.03852 -72.69932 37910 ft 449 kts 216°
2026-05-05 20:45 40.98718 -72.74627 37917 ft 450 kts 216°
2026-05-05 20:46 40.93574 -72.79327 37918 ft 450 kts 216°
2026-05-05 20:46 40.88511 -72.84157 37915 ft 449 kts 218°
2026-05-05 20:47 40.83494 -72.89072 37910 ft 450 kts 217°
2026-05-05 20:47 40.77840 -72.92690 37911 ft 454 kts 200°
2026-05-05 20:48 40.71725 -72.94866 37907 ft 457 kts 197°
2026-05-05 20:48 40.65555 -72.96909 37904 ft 458 kts 197°
2026-05-05 20:49 40.59664 -72.99899 37904 ft 454 kts 212°
2026-05-05 20:49 40.54505 -73.04611 37903 ft 451 kts 219°
2026-05-05 20:50 40.49504 -73.09566 37903 ft 450 kts 219°
2026-05-05 20:50 40.44472 -73.14544 37890 ft 451 kts 219°
2026-05-05 20:51 40.39460 -73.19493 37888 ft 452 kts 219°
2026-05-05 20:51 40.34442 -73.24438 37888 ft 452 kts 219°
2026-05-05 20:52 40.29380 -73.29308 37887 ft 453 kts 217°
2026-05-05 20:52 40.24214 -73.34010 37886 ft 453 kts 217°
2026-05-05 20:53 40.19003 -73.38745 37886 ft 454 kts 217°
2026-05-05 20:53 40.13827 -73.43444 37884 ft 454 kts 217°
2026-05-05 20:54 40.08618 -73.48099 37883 ft 455 kts 216°
2026-05-05 20:54 40.03247 -73.52449 37884 ft 455 kts 214°
2026-05-05 20:55 39.97848 -73.56770 37883 ft 457 kts 214°
2026-05-05 20:55 39.92432 -73.61104 37884 ft 458 kts 214°
2026-05-05 20:56 39.87011 -73.65435 37890 ft 458 kts 214°
2026-05-05 20:56 39.81589 -73.69761 37892 ft 458 kts 214°
2026-05-05 20:57 39.76129 -73.74108 37893 ft 458 kts 214°
2026-05-05 20:57 39.70709 -73.78416 37895 ft 458 kts 214°
2026-05-05 20:58 39.65293 -73.82741 37901 ft 458 kts 214°
2026-05-05 20:58 39.59870 -73.87039 37903 ft 457 kts 214°
2026-05-05 20:59 39.54447 -73.91317 37905 ft 457 kts 214°
2026-05-05 20:59 39.49014 -73.95594 37908 ft 458 kts 214°
2026-05-05 21:00 39.43541 -73.99899 37908 ft 458 kts 214°
2026-05-05 21:00 39.38381 -74.04654 37933 ft 456 kts 222°
2026-05-05 21:01 39.33563 -74.09973 37933 ft 456 kts 224°
2026-05-05 21:01 39.28753 -74.15288 37931 ft 456 kts 223°
2026-05-05 21:02 39.23915 -74.20564 37932 ft 456 kts 223°
2026-05-05 21:02 39.19073 -74.25822 37934 ft 456 kts 223°
2026-05-05 21:03 39.14252 -74.31131 37935 ft 457 kts 223°
2026-05-05 21:03 39.09366 -74.36429 37937 ft 457 kts 223°
2026-05-05 21:04 39.04495 -74.41682 37940 ft 458 kts 223°
2026-05-05 21:04 38.99617 -74.46933 37954 ft 458 kts 223°
2026-05-05 21:05 38.94732 -74.52185 37960 ft 459 kts 223°
2026-05-05 21:05 38.89981 -74.57622 37962 ft 458 kts 226°
2026-05-05 21:06 38.85311 -74.63169 37962 ft 458 kts 225°
2026-05-05 21:06 38.80573 -74.68701 37963 ft 459 kts 225°
2026-05-05 21:07 38.75861 -74.74188 37966 ft 458 kts 226°
2026-05-05 21:07 38.70999 -74.79480 37970 ft 460 kts 222°
2026-05-05 21:08 38.66008 -74.84594 37975 ft 460 kts 223°
2026-05-05 21:08 38.61036 -74.89741 37982 ft 461 kts 223°
2026-05-05 21:09 38.56059 -74.94898 37978 ft 462 kts 223°
2026-05-05 21:09 38.51108 -75.00103 37984 ft 461 kts 225°
2026-05-05 21:10 38.46260 -75.05539 37992 ft 462 kts 223°
2026-05-05 21:10 38.41143 -75.10491 38001 ft 463 kts 220°
2026-05-05 21:11 38.35938 -75.15338 38006 ft 465 kts 220°
2026-05-05 21:11 38.30750 -75.20235 38007 ft 465 kts 221°
2026-05-05 21:12 38.25580 -75.25177 38004 ft 466 kts 221°
2026-05-05 21:12 38.20381 -75.30088 37997 ft 466 kts 221°
2026-05-05 21:13 38.15168 -75.34996 37996 ft 467 kts 221°
2026-05-05 21:13 38.09917 -75.39932 38003 ft 468 kts 221°
2026-05-05 21:14 38.04466 -75.44456 38011 ft 475 kts 211°
2026-05-05 21:14 37.98322 -75.47654 38017 ft 481 kts 204°
2026-05-05 21:15 37.91976 -75.50431 38019 ft 483 kts 204°
2026-05-05 21:15 37.85670 -75.53270 38017 ft 482 kts 204°
2026-05-05 21:16 37.79324 -75.56152 38013 ft 482 kts 205°
2026-05-05 21:16 37.73013 -75.59018 38015 ft 483 kts 205°
2026-05-05 21:17 37.66597 -75.61504 38012 ft 485 kts 197°
2026-05-05 21:17 37.59931 -75.63027 38012 ft 490 kts 193°
2026-05-05 21:18 37.53208 -75.64377 38011 ft 490 kts 194°
2026-05-05 21:18 37.46501 -75.65798 38011 ft 488 kts 194°
2026-05-05 21:19 37.39820 -75.67229 38013 ft 488 kts 194°
2026-05-05 21:19 37.33092 -75.68686 38014 ft 488 kts 194°
2026-05-05 21:20 37.26399 -75.70125 38015 ft 488 kts 194°
2026-05-05 21:20 37.19713 -75.71554 38016 ft 488 kts 194°
2026-05-05 21:21 37.13025 -75.72981 38016 ft 489 kts 194°
2026-05-05 21:21 37.06411 -75.74728 38019 ft 484 kts 204°
2026-05-05 21:22 37.00322 -75.78175 38011 ft 479 kts 212°
2026-05-05 21:22 36.94489 -75.82228 38009 ft 476 kts 214°
2026-05-05 21:23 36.88733 -75.86278 38018 ft 475 kts 214°
2026-05-05 21:23 36.82958 -75.90286 38010 ft 476 kts 214°
2026-05-05 21:24 36.77163 -75.94284 38012 ft 477 kts 214°
2026-05-05 21:24 36.71374 -75.98300 38014 ft 477 kts 214°
2026-05-05 21:25 36.65566 -76.02313 38024 ft 480 kts 214°
2026-05-05 21:25 36.59675 -76.06365 38026 ft 481 kts 214°
2026-05-05 21:26 36.54811 -76.09703 38034 ft 481 kts 214°
2026-05-05 21:26 36.47976 -76.14383 38046 ft 480 kts 214°
2026-05-05 21:27 36.43117 -76.17705 38051 ft 481 kts 214°
2026-05-05 21:27 36.37261 -76.21700 38056 ft 481 kts 214°
2026-05-05 21:28 36.31371 -76.25713 38059 ft 481 kts 214°
2026-05-05 21:28 36.25515 -76.29695 38060 ft 481 kts 214°
2026-05-05 21:29 36.19660 -76.33669 38061 ft 481 kts 214°
2026-05-05 21:29 36.13811 -76.37654 38063 ft 481 kts 214°
2026-05-05 21:30 36.07953 -76.41618 38066 ft 481 kts 214°
2026-05-05 21:30 36.02090 -76.45570 38069 ft 481 kts 214°
2026-05-05 21:31 35.96183 -76.49546 38070 ft 482 kts 214°
2026-05-05 21:31 35.90288 -76.53509 38071 ft 483 kts 214°
2026-05-05 21:32 35.84313 -76.57320 38072 ft 485 kts 212°
2026-05-05 21:32 35.78260 -76.60987 38074 ft 486 kts 212°
2026-05-05 21:33 35.72202 -76.64693 38075 ft 487 kts 212°
2026-05-05 21:33 35.66143 -76.68408 38077 ft 488 kts 212°
2026-05-05 21:34 35.60076 -76.72126 38081 ft 488 kts 212°
2026-05-05 21:34 35.53960 -76.75896 38091 ft 489 kts 212°
2026-05-05 21:35 35.47888 -76.79641 38094 ft 490 kts 212°
2026-05-05 21:35 35.41785 -76.83369 38097 ft 491 kts 212°
2026-05-05 21:36 35.35676 -76.87088 38100 ft 491 kts 212°
2026-05-05 21:36 35.29559 -76.90807 38107 ft 492 kts 213°
2026-05-05 21:37 35.23426 -76.94535 38113 ft 492 kts 213°
2026-05-05 21:37 35.20379 -76.96437 38321 ft 493 kts 213°
2026-05-05 21:37 35.17288 -76.98379 38586 ft 495 kts 213°
2026-05-05 21:38 35.14232 -77.00294 38937 ft 494 kts 213°
2026-05-05 21:38 35.11183 -77.02201 39307 ft 492 kts 213°
2026-05-05 21:38 35.08144 -77.04099 39701 ft 490 kts 213°
2026-05-05 21:38 35.05115 -77.05988 40034 ft 489 kts 213°
2026-05-05 21:39 34.99050 -77.09766 40116 ft 490 kts 213°
2026-05-05 21:39 34.93002 -77.13532 40120 ft 489 kts 214°
2026-05-05 21:40 34.86962 -77.17315 40121 ft 489 kts 214°
2026-05-05 21:40 34.80913 -77.21079 40122 ft 489 kts 214°
2026-05-05 21:41 34.74824 -77.24871 40120 ft 489 kts 214°
2026-05-05 21:41 34.68765 -77.28628 40119 ft 489 kts 214°
2026-05-05 21:42 34.62702 -77.32370 40117 ft 490 kts 214°
2026-05-05 21:42 34.56639 -77.36105 40117 ft 490 kts 214°
2026-05-05 21:43 34.50551 -77.39801 40108 ft 493 kts 210°
2026-05-05 21:43 34.43898 -77.42082 40121 ft 503 kts 198°
2026-05-05 21:44 34.36919 -77.43458 40118 ft 509 kts 194°
2026-05-05 21:44 34.29914 -77.44731 40118 ft 511 kts 195°
2026-05-05 21:45 34.22900 -77.46073 40114 ft 511 kts 195°
2026-05-05 21:45 34.15899 -77.47429 40114 ft 510 kts 195°
2026-05-05 21:46 34.08915 -77.48794 40114 ft 509 kts 195°
2026-05-05 21:46 34.01870 -77.50165 40117 ft 511 kts 195°
2026-05-05 21:47 33.94864 -77.51525 40118 ft 511 kts 196°
2026-05-05 21:47 33.87854 -77.52887 40112 ft 511 kts 196°
2026-05-05 21:48 33.80847 -77.54244 40122 ft 511 kts 196°
2026-05-05 21:48 33.73841 -77.55595 40126 ft 511 kts 196°
2026-05-05 21:49 33.66837 -77.56943 40127 ft 511 kts 196°
2026-05-05 21:49 33.59827 -77.58291 40125 ft 511 kts 196°
2026-05-05 21:50 33.52928 -77.60269 40126 ft 505 kts 203°
2026-05-05 21:50 33.46237 -77.62696 40125 ft 502 kts 204°
2026-05-05 21:51 33.39559 -77.65075 40125 ft 502 kts 204°
2026-05-05 21:51 33.32867 -77.67419 40125 ft 502 kts 204°
2026-05-05 21:52 33.22821 -77.70925 40125 ft 502 kts 204°
2026-05-05 21:53 33.16131 -77.73261 40124 ft 502 kts 204°
2026-05-05 21:53 33.09388 -77.75605 40124 ft 502 kts 204°
2026-05-05 21:54 33.02683 -77.77929 40123 ft 503 kts 204°
2026-05-05 21:54 32.95983 -77.80254 40123 ft 502 kts 204°
2026-05-05 21:55 32.89292 -77.82570 40123 ft 502 kts 204°
2026-05-05 21:55 32.82597 -77.84876 40122 ft 501 kts 204°
2026-05-05 21:56 32.75914 -77.87175 40121 ft 501 kts 205°
2026-05-05 21:56 32.69212 -77.89477 40120 ft 502 kts 205°
2026-05-05 21:57 32.62452 -77.91735 40117 ft 503 kts 204°
2026-05-05 21:57 32.55707 -77.93904 40117 ft 503 kts 204°
2026-05-05 21:58 32.48975 -77.96075 40118 ft 502 kts 204°
2026-05-05 21:58 32.42243 -77.98247 40118 ft 502 kts 204°
2026-05-05 21:59 32.35505 -78.00419 40117 ft 503 kts 204°
2026-05-05 21:59 32.28727 -78.02616 40117 ft 503 kts 205°
2026-05-05 22:00 32.21983 -78.04794 40108 ft 503 kts 205°
2026-05-05 22:00 32.15244 -78.06963 40102 ft 503 kts 205°
2026-05-05 22:01 32.08500 -78.09130 40106 ft 503 kts 205°
2026-05-05 22:01 32.01762 -78.11291 40113 ft 503 kts 205°
2026-05-05 22:02 31.95018 -78.13450 40113 ft 503 kts 205°
2026-05-05 22:02 31.88274 -78.15606 40112 ft 503 kts 205°
2026-05-05 22:03 31.81485 -78.17773 40111 ft 503 kts 205°
2026-05-05 22:03 31.74740 -78.19931 40110 ft 503 kts 205°
2026-05-05 22:04 31.67993 -78.22079 40109 ft 503 kts 205°
2026-05-05 22:04 31.61241 -78.24222 40109 ft 503 kts 205°
2026-05-05 22:05 31.54490 -78.26361 40108 ft 503 kts 205°
2026-05-05 22:05 31.47734 -78.28499 40104 ft 504 kts 205°
2026-05-05 22:06 31.40990 -78.30727 40097 ft 505 kts 206°
2026-05-05 22:06 31.34207 -78.33005 40096 ft 504 kts 206°
2026-05-05 22:07 31.27472 -78.35255 40095 ft 504 kts 206°
2026-05-05 22:07 31.20731 -78.37502 40095 ft 505 kts 206°
2026-05-05 22:08 31.13987 -78.39747 40101 ft 505 kts 206°
2026-05-05 22:08 31.07248 -78.42003 40097 ft 505 kts 206°
2026-05-05 22:09 31.00505 -78.44248 40096 ft 505 kts 206°
2026-05-05 22:09 30.93712 -78.46504 40095 ft 505 kts 206°
2026-05-05 22:10 30.86960 -78.48742 40095 ft 505 kts 206°
2026-05-05 22:10 30.80204 -78.50978 40100 ft 505 kts 207°
2026-05-05 22:11 30.73453 -78.53209 40100 ft 506 kts 207°
2026-05-05 22:11 30.66693 -78.55440 40099 ft 505 kts 207°
2026-05-05 22:12 30.59938 -78.57665 40099 ft 506 kts 207°
2026-05-05 22:12 30.53133 -78.59904 40098 ft 506 kts 207°
2026-05-05 22:13 30.46373 -78.62134 40094 ft 506 kts 207°
2026-05-05 22:13 30.39613 -78.64352 40093 ft 506 kts 207°
2026-05-05 22:14 30.32846 -78.66565 40092 ft 506 kts 207°
2026-05-05 22:14 30.26078 -78.68776 40081 ft 506 kts 207°
2026-05-05 22:15 30.19315 -78.70985 40070 ft 506 kts 207°
2026-05-05 22:15 30.12541 -78.73191 40061 ft 506 kts 207°
2026-05-05 22:16 30.05732 -78.75416 40060 ft 506 kts 207°
2026-05-05 22:16 29.98953 -78.77623 40059 ft 508 kts 207°
2026-05-05 22:17 29.92157 -78.79827 40065 ft 508 kts 207°
2026-05-05 22:17 29.85356 -78.82031 40065 ft 509 kts 207°
2026-05-05 22:18 29.78504 -78.84150 40062 ft 516 kts 202°
2026-05-05 22:18 29.71368 -78.85384 40064 ft 522 kts 197°
2026-05-05 22:19 29.64112 -78.86263 40063 ft 526 kts 196°
2026-05-05 22:19 29.56841 -78.87198 40062 ft 526 kts 197°
2026-05-05 22:20 29.49536 -78.88166 40061 ft 525 kts 197°
2026-05-05 22:20 29.43516 -78.88971 40062 ft 525 kts 197°
2026-05-05 22:21 29.36268 -78.89948 40061 ft 526 kts 197°
2026-05-05 22:21 29.29002 -78.90923 40058 ft 527 kts 197°
2026-05-05 22:22 29.21687 -78.91902 40057 ft 526 kts 197°
2026-05-05 22:22 29.14420 -78.92874 40058 ft 526 kts 197°
2026-05-05 22:23 29.07159 -78.93843 40057 ft 526 kts 197°
2026-05-05 22:23 28.99903 -78.94810 40057 ft 526 kts 197°
2026-05-05 22:24 28.92647 -78.95776 40057 ft 526 kts 197°
2026-05-05 22:24 28.85385 -78.96741 40057 ft 527 kts 197°
2026-05-05 22:25 28.78052 -78.97714 40056 ft 528 kts 197°
2026-05-05 22:25 28.70817 -78.98673 40055 ft 528 kts 197°
2026-05-05 22:26 28.63495 -78.99645 40055 ft 527 kts 197°
2026-05-05 22:26 28.56217 -79.00608 40050 ft 527 kts 197°
2026-05-05 22:27 28.48941 -79.01567 40049 ft 527 kts 197°
2026-05-05 22:27 28.41662 -79.02526 40043 ft 527 kts 196°
2026-05-05 22:28 28.34389 -79.03646 40047 ft 519 kts 202°
2026-05-05 22:28 28.27499 -79.05855 40053 ft 511 kts 209°
2026-05-05 22:29 28.20823 -79.08443 40053 ft 506 kts 210°
2026-05-05 22:29 28.14159 -79.10972 40054 ft 506 kts 209°
2026-05-05 22:30 28.07475 -79.13469 40054 ft 507 kts 209°
2026-05-05 22:30 28.00781 -79.15960 40054 ft 508 kts 209°
2026-05-05 22:31 27.94063 -79.18467 40052 ft 510 kts 208°
2026-05-05 22:31 27.90655 -79.19733 39814 ft 509 kts 208°
2026-05-05 22:31 27.87291 -79.20981 39415 ft 511 kts 208°
2026-05-05 22:31 27.83901 -79.22237 38971 ft 514 kts 208°
2026-05-05 22:32 27.80510 -79.23492 38666 ft 514 kts 208°
2026-05-05 22:32 27.77115 -79.24748 38308 ft 515 kts 208°
2026-05-05 22:32 27.73713 -79.26006 37917 ft 516 kts 208°
2026-05-05 22:32 27.70300 -79.27267 37520 ft 517 kts 208°
2026-05-05 22:33 27.66876 -79.28531 37036 ft 520 kts 207°
2026-05-05 22:33 27.63438 -79.29800 36666 ft 520 kts 207°
2026-05-05 22:33 27.60009 -79.31068 36257 ft 521 kts 207°
2026-05-05 22:33 27.56567 -79.32340 35844 ft 521 kts 207°
2026-05-05 22:34 27.53134 -79.33605 35603 ft 518 kts 207°
2026-05-05 22:34 27.49683 -79.34874 35221 ft 513 kts 207°
2026-05-05 22:34 27.46300 -79.36116 34564 ft 510 kts 207°
2026-05-05 22:34 27.42949 -79.37346 33990 ft 506 kts 207°
2026-05-05 22:35 27.39624 -79.38566 33419 ft 501 kts 207°
2026-05-05 22:35 27.36325 -79.39776 32867 ft 496 kts 207°
2026-05-05 22:35 27.33063 -79.40971 32323 ft 491 kts 206°
2026-05-05 22:35 27.29835 -79.42155 31784 ft 486 kts 206°
2026-05-05 22:36 27.26644 -79.43328 31251 ft 481 kts 206°
2026-05-05 22:36 27.23480 -79.44487 30719 ft 476 kts 206°
2026-05-05 22:36 27.20358 -79.45628 30193 ft 471 kts 206°
2026-05-05 22:36 27.17266 -79.46757 29669 ft 466 kts 205°
2026-05-05 22:37 27.14200 -79.47876 29132 ft 461 kts 205°
2026-05-05 22:37 27.11172 -79.48981 28592 ft 456 kts 205°
2026-05-05 22:37 27.08131 -79.50090 28046 ft 452 kts 205°
2026-05-05 22:37 27.05163 -79.51173 27510 ft 447 kts 205°
2026-05-05 22:38 27.02222 -79.52247 26978 ft 443 kts 205°
2026-05-05 22:38 26.99311 -79.53308 26448 ft 438 kts 205°
2026-05-05 22:38 26.96428 -79.54357 25917 ft 434 kts 205°
2026-05-05 22:38 26.93578 -79.55394 25388 ft 430 kts 205°
2026-05-05 22:39 26.90752 -79.56421 24860 ft 426 kts 205°
2026-05-05 22:39 26.87953 -79.57440 24335 ft 421 kts 205°
2026-05-05 22:39 26.85180 -79.58443 23814 ft 417 kts 205°
2026-05-05 22:39 26.82436 -79.59433 23291 ft 413 kts 205°
2026-05-05 22:40 26.79713 -79.60414 22768 ft 410 kts 205°
2026-05-05 22:40 26.77017 -79.61385 22246 ft 406 kts 205°
2026-05-05 22:40 26.74345 -79.62347 21724 ft 403 kts 205°
2026-05-05 22:40 26.71691 -79.63302 21204 ft 399 kts 204°
2026-05-05 22:41 26.69027 -79.64259 20682 ft 396 kts 204°
2026-05-05 22:41 26.66419 -79.65197 20167 ft 392 kts 204°
2026-05-05 22:41 26.63838 -79.66124 19657 ft 389 kts 204°
2026-05-05 22:41 26.61270 -79.67044 19147 ft 387 kts 203°
2026-05-05 22:42 26.58716 -79.67937 18638 ft 384 kts 203°
2026-05-05 22:42 26.56181 -79.68822 18127 ft 381 kts 203°
2026-05-05 22:42 26.53664 -79.69702 17616 ft 378 kts 202°
2026-05-05 22:42 26.51167 -79.70575 17111 ft 376 kts 202°
2026-05-05 22:43 26.48683 -79.71443 16611 ft 373 kts 202°
2026-05-05 22:43 26.46391 -79.72646 16120 ft 361 kts 218°
2026-05-05 22:43 26.44395 -79.74304 15852 ft 354 kts 224°
2026-05-05 22:43 26.42619 -79.76144 15634 ft 346 kts 230°
2026-05-05 22:44 26.40981 -79.78144 15411 ft 344 kts 232°
2026-05-05 22:44 26.39428 -79.80121 15197 ft 343 kts 233°
2026-05-05 22:44 26.37906 -79.82195 14980 ft 340 kts 237°
2026-05-05 22:44 26.36543 -79.84332 14766 ft 336 kts 239°
2026-05-05 22:45 26.35259 -79.86455 14556 ft 326 kts 239°
2026-05-05 22:45 26.33997 -79.88497 14375 ft 315 kts 239°
2026-05-05 22:45 26.32774 -79.90464 14221 ft 305 kts 239°
2026-05-05 22:45 26.31578 -79.92383 14070 ft 301 kts 238°
2026-05-05 22:46 26.30391 -79.94278 13919 ft 296 kts 238°
2026-05-05 22:46 26.29212 -79.96157 13763 ft 296 kts 238°
2026-05-05 22:46 26.28035 -79.98034 13589 ft 296 kts 238°
2026-05-05 22:46 26.26855 -79.99907 13413 ft 296 kts 237°
2026-05-05 22:47 26.25344 -80.01489 13248 ft 299 kts 216°
2026-05-05 22:47 26.23440 -80.02442 13060 ft 304 kts 204°
2026-05-05 22:47 26.21418 -80.03145 12859 ft 306 kts 199°
2026-05-05 22:47 26.19347 -80.03673 12659 ft 305 kts 195°
2026-05-05 22:48 26.17264 -80.04105 12460 ft 305 kts 194°
2026-05-05 22:48 26.15187 -80.04535 12259 ft 303 kts 195°
2026-05-05 22:48 26.13126 -80.04991 12059 ft 302 kts 195°
2026-05-05 22:48 26.11077 -80.05455 11868 ft 300 kts 195°
2026-05-05 22:49 26.09037 -80.05920 11693 ft 299 kts 195°
2026-05-05 22:49 26.06999 -80.06384 11463 ft 300 kts 195°
2026-05-05 22:49 26.04970 -80.06883 11089 ft 299 kts 196°
2026-05-05 22:49 26.02962 -80.07418 10748 ft 295 kts 196°
2026-05-05 22:50 26.00975 -80.07944 10424 ft 294 kts 196°
2026-05-05 22:50 25.98993 -80.08462 10100 ft 293 kts 195°
2026-05-05 22:50 25.97014 -80.08977 9774 ft 292 kts 195°
2026-05-05 22:50 25.95020 -80.09494 9445 ft 290 kts 195°
2026-05-05 22:51 25.93059 -80.10015 9151 ft 288 kts 197°
2026-05-05 22:51 25.91180 -80.10766 9019 ft 288 kts 204°
2026-05-05 22:51 25.89377 -80.11722 8911 ft 287 kts 208°
2026-05-05 22:51 25.87624 -80.12774 8906 ft 287 kts 210°
2026-05-05 22:52 25.85881 -80.13845 8905 ft 286 kts 210°
2026-05-05 22:52 25.84129 -80.14893 8905 ft 286 kts 209°
2026-05-05 22:52 25.82370 -80.15924 8857 ft 287 kts 209°
2026-05-05 22:52 25.80603 -80.16950 8716 ft 287 kts 208°
2026-05-05 22:53 25.78842 -80.17968 8569 ft 285 kts 208°
2026-05-05 22:53 25.77085 -80.18981 8418 ft 284 kts 208°
2026-05-05 22:53 25.75338 -80.19988 8269 ft 284 kts 208°
2026-05-05 22:53 25.73706 -80.21182 8064 ft 280 kts 225°
2026-05-05 22:54 25.72661 -80.22998 7684 ft 277 kts 248°
2026-05-05 22:54 25.72141 -80.25046 7320 ft 276 kts 258°
2026-05-05 22:54 25.71861 -80.27141 6973 ft 274 kts 263°
2026-05-05 22:54 25.71709 -80.29238 6627 ft 273 kts 266°
2026-05-05 22:55 25.71586 -80.31330 6289 ft 271 kts 265°
2026-05-05 22:55 25.71432 -80.33401 5980 ft 268 kts 265°
2026-05-05 22:55 25.71255 -80.35417 5809 ft 259 kts 264°
2026-05-05 22:55 25.71076 -80.37361 5663 ft 249 kts 264°
2026-05-05 22:56 25.70894 -80.39227 5533 ft 239 kts 264°
2026-05-05 22:56 25.70718 -80.41036 5405 ft 234 kts 264°
2026-05-05 22:56 25.70543 -80.42835 5277 ft 231 kts 264°
2026-05-05 22:56 25.70369 -80.44624 5099 ft 235 kts 264°
2026-05-05 22:57 25.70200 -80.46411 4852 ft 232 kts 264°
2026-05-05 22:57 25.70075 -80.48183 4610 ft 229 kts 266°
2026-05-05 22:57 25.70090 -80.49942 4354 ft 230 kts 282°
2026-05-05 22:57 25.70842 -80.51472 4100 ft 230 kts 313°
2026-05-05 22:58 25.72220 -80.52336 3841 ft 230 kts 342°
2026-05-05 22:58 25.73765 -80.52480 3672 ft 217 kts 357°
2026-05-05 22:58 25.75188 -80.52269 3524 ft 199 kts 19°
2026-05-05 22:58 25.76247 -80.51321 3395 ft 196 kts 49°
2026-05-05 22:59 25.76934 -80.50033 3254 ft 193 kts 59°
2026-05-05 22:59 25.77546 -80.48710 3084 ft 193 kts 62°
2026-05-05 22:59 25.78068 -80.47347 2829 ft 192 kts 75°
2026-05-05 22:59 25.78196 -80.45859 2586 ft 191 kts 87°
2026-05-05 23:00 25.78159 -80.42946 2109 ft 183 kts 88°
2026-05-05 23:00 25.78193 -80.41608 1885 ft 165 kts 87°
2026-05-05 23:00 25.78243 -80.40392 1653 ft 153 kts 87°
2026-05-05 23:01 25.78291 -80.39238 1460 ft 147 kts 87°
2026-05-05 23:01 25.78337 -80.38134 1254 ft 141 kts 87°
2026-05-05 23:01 25.78382 -80.37058 1067 ft 140 kts 87°
2026-05-05 23:01 25.78426 -80.35975 887 ft 141 kts 87°
2026-05-05 23:02 25.78471 -80.34892 699 ft 141 kts 87°
2026-05-05 23:02 25.78518 -80.33805 508 ft 141 kts 86°
2026-05-05 23:02 25.78564 -80.32725 325 ft 140 kts 87°
2026-05-05 23:02 25.78606 -80.31645 128 ft 140 kts 86°
2026-05-05 23:03 25.78654 -80.30571 24 ft 135 kts 89°
2026-05-05 23:03 25.78687 -80.29698 22 ft 82 kts 87°
2026-05-05 23:03 25.78706 -80.29228 22 ft 53 kts 87°
2026-05-05 23:03 25.78719 -80.28932 22 ft 28 kts 88°
2026-05-05 23:04 25.78742 -80.28762 22 ft 18 kts 59°
2026-05-05 23:04 25.78822 -80.28686 22 ft 13 kts 21°
2026-05-05 23:04 25.78900 -80.28678 22 ft 9 kts 356°
2026-05-05 23:04 25.78950 -80.28710 22 ft 9 kts 290°
2026-05-05 23:05 25.78952 -80.28777 22 ft 10 kts 267°
2026-05-05 23:05 25.78946 -80.28864 22 ft 13 kts 260°
2026-05-05 23:05 25.78923 -80.28966 22 ft 15 kts 256°
2026-05-05 23:05 25.78905 -80.29086 22 ft 17 kts 266°
2026-05-05 23:06 25.78899 -80.29224 22 ft 19 kts 267°
2026-05-05 23:06 25.78893 -80.29383 22 ft 21 kts 267°
2026-05-05 23:06 25.78886 -80.29541 22 ft 20 kts 267°
2026-05-05 23:06 25.78880 -80.29690 22 ft 19 kts 267°
2026-05-05 23:07 25.78874 -80.29831 22 ft 18 kts 267°
2026-05-05 23:07 25.78869 -80.29965 22 ft 17 kts 267°
2026-05-05 23:07 25.78863 -80.30092 22 ft 16 kts 267°
2026-05-05 23:07 25.78858 -80.30211 22 ft 15 kts 267°
2026-05-05 23:08 25.78853 -80.30324 22 ft 14 kts 267°
2026-05-05 23:08 25.78849 -80.30429 22 ft 13 kts 267°
2026-05-05 23:08 25.78845 -80.30503 22 ft 8 kts 267°
2026-05-05 23:08 25.78861 -80.30551 22 ft 7 kts 329°
2026-05-05 23:09 25.78906 -80.30560 22 ft 6 kts 357°
2026-05-05 23:09 25.78939 -80.30565 22 ft 4 kts 325°
2026-05-05 23:09 25.78943 -80.30591 22 ft 3 kts 269°
2026-05-05 23:09 25.78942 -80.30616 22 ft 3 kts 267°
2026-05-05 23:10 25.78941 -80.30638 22 ft 2 kts 267°
2026-05-05 23:10 25.78941 -80.30649 22 ft 0 kts 267°